Time,TemperatureF,DewpointF,PressureIn,WindDirection,WindDirectionDegrees,WindSpeedMPH,WindSpeedGustMPH,Humidity,HourlyPrecipIn,Conditions,Clouds,dailyrainin,SoftwareType,DateUTC
2013-01-06 00:02:00,42.3,30.2,30.00,SSW,210,5.4,6.3,62,0.00,,---,0.00,VWS V14.01,2013-01-06 08:02:00,
2013-01-06 00:04:00,42.4,30.4,30.00,SSW,204,6.3,8.1,62,0.00,,---,0.00,VWS V14.01,2013-01-06 08:04:00,
2013-01-06 00:07:00,42.4,30.4,30.00,SSW,211,5.8,5.8,62,0.00,,---,0.00,VWS V14.01,2013-01-06 08:07:00,
2013-01-06 00:10:00,42.6,30.9,30.00,SSW,202,5.8,5.8,63,0.00,,---,0.00,VWS V14.01,2013-01-06 08:10:00,
2013-01-06 00:12:00,42.6,30.9,30.00,SW,229,6.3,6.3,63,0.00,,---,0.00,VWS V14.01,2013-01-06 08:12:00,
2013-01-06 00:16:00,42.8,31.1,30.00,SW,216,7.2,7.2,63,0.00,,---,0.00,VWS V14.01,2013-01-06 08:16:00,
2013-01-06 00:17:00,42.8,31.1,30.00,SW,216,7.2,7.2,63,0.00,,---,0.00,VWS V14.01,2013-01-06 08:17:00,
2013-01-06 00:19:00,43.0,31.6,30.00,SW,215,6.3,6.3,64,0.00,,---,0.00,VWS V14.01,2013-01-06 08:19:00,
2013-01-06 00:22:00,43.2,31.8,30.00,SSW,210,8.1,8.1,64,0.00,,---,0.00,VWS V14.01,2013-01-06 08:22:00,
2013-01-06 00:23:00,43.2,31.8,30.00,SSW,210,8.1,8.1,64,0.00,,---,0.00,VWS V14.01,2013-01-06 08:23:00,
2013-01-06 00:24:00,43.3,32.4,30.00,SSW,196,5.4,8.1,65,0.00,,---,0.00,VWS V14.01,2013-01-06 08:24:00,
2013-01-06 00:27:00,43.3,32.4,30.00,South,173,4.0,4.0,65,0.00,,---,0.00,VWS V14.01,2013-01-06 08:27:00,
2013-01-06 00:30:00,43.3,32.4,30.00,SE,126,6.3,6.3,65,0.00,,---,0.00,VWS V14.01,2013-01-06 08:30:00,
2013-01-06 00:33:00,43.2,32.2,30.00,SE,144,6.3,6.7,65,0.00,,---,0.00,VWS V14.01,2013-01-06 08:33:00,
2013-01-06 00:35:00,43.0,31.6,30.00,SSE,167,5.8,7.6,64,0.00,,---,0.00,VWS V14.01,2013-01-06 08:35:00,
2013-01-06 00:36:00,43.0,31.6,30.00,South,170,5.4,5.8,64,0.00,,---,0.00,VWS V14.01,2013-01-06 08:36:00,
2013-01-06 00:39:00,43.0,32.0,30.00,SSE,162,6.3,6.3,65,0.00,,---,0.00,VWS V14.01,2013-01-06 08:39:00,
2013-01-06 00:40:00,43.0,32.0,30.00,SSW,207,5.8,6.3,65,0.00,,---,0.00,VWS V14.01,2013-01-06 08:40:00,
2013-01-06 00:43:00,43.0,32.8,30.00,SSW,207,5.8,5.8,67,0.00,,---,0.00,VWS V14.01,2013-01-06 08:43:00,
2013-01-06 00:44:00,43.0,33.2,30.00,South,181,6.3,6.3,68,0.00,,---,0.00,VWS V14.01,2013-01-06 08:44:00,
2013-01-06 00:47:00,43.0,33.2,30.00,South,181,6.3,6.3,68,0.00,,---,0.00,VWS V14.01,2013-01-06 08:47:00,
2013-01-06 00:51:00,43.2,34.0,30.00,SSW,194,10.1,10.1,70,0.00,,---,0.00,VWS V14.01,2013-01-06 08:51:00,
2013-01-06 00:52:00,43.2,34.0,30.00,SSW,192,6.3,10.1,70,0.00,,---,0.00,VWS V14.01,2013-01-06 08:52:00,
2013-01-06 00:53:00,43.2,34.0,30.00,SSW,201,7.6,7.6,70,0.00,,---,0.00,VWS V14.01,2013-01-06 08:53:00,
2013-01-06 00:54:00,43.0,34.6,30.00,SSW,192,8.1,8.1,72,0.00,,---,0.00,VWS V14.01,2013-01-06 08:54:00,
2013-01-06 00:57:00,43.0,34.9,30.00,SSW,206,7.6,8.3,73,0.00,,---,0.00,VWS V14.01,2013-01-06 08:57:00,
2013-01-06 00:59:00,43.0,35.3,30.00,SSW,197,4.0,4.0,74,0.00,,---,0.00,VWS V14.01,2013-01-06 08:59:00,
2013-01-06 01:00:00,43.0,35.3,30.00,SSW,197,4.0,4.0,74,0.00,,---,0.00,VWS V14.01,2013-01-06 09:00:00,
2013-01-06 01:04:00,42.8,35.4,30.00,SSW,194,8.1,8.1,75,0.00,,---,0.00,VWS V14.01,2013-01-06 09:04:00,
2013-01-06 01:05:00,42.8,35.4,30.00,SSW,201,8.3,8.3,75,0.00,,---,0.00,VWS V14.01,2013-01-06 09:05:00,
2013-01-06 01:06:00,42.8,35.8,30.00,South,178,3.6,8.3,76,0.00,,---,0.00,VWS V14.01,2013-01-06 09:06:00,
2013-01-06 01:07:00,42.8,35.8,30.00,South,178,3.6,3.6,76,0.00,,---,0.00,VWS V14.01,2013-01-06 09:07:00,
2013-01-06 01:09:00,42.8,35.8,30.00,SSE,164,6.3,6.7,76,0.00,,---,0.00,VWS V14.01,2013-01-06 09:09:00,
2013-01-06 01:12:00,42.6,35.6,30.00,SSE,165,6.7,6.7,76,0.00,,---,0.00,VWS V14.01,2013-01-06 09:12:00,
2013-01-06 01:13:00,42.6,35.9,30.00,SSE,156,6.3,6.7,77,0.00,,---,0.00,VWS V14.01,2013-01-06 09:13:00,
2013-01-06 01:15:00,42.4,35.8,30.00,SSE,156,6.3,6.3,77,0.00,,---,0.00,VWS V14.01,2013-01-06 09:15:00,
2013-01-06 01:16:00,42.4,35.8,30.00,SE,141,6.3,6.3,77,0.00,,---,0.00,VWS V14.01,2013-01-06 09:16:00,
2013-01-06 01:20:00,42.4,35.8,30.00,South,169,6.3,6.3,77,0.00,,---,0.00,VWS V14.01,2013-01-06 09:20:00,
2013-01-06 01:21:00,42.4,35.8,30.00,SE,139,6.3,6.3,77,0.00,,---,0.00,VWS V14.01,2013-01-06 09:21:00,
2013-01-06 01:22:00,42.4,35.8,30.00,SE,139,6.3,6.3,77,0.00,,---,0.00,VWS V14.01,2013-01-06 09:22:00,
2013-01-06 01:24:00,42.4,36.1,30.00,South,171,6.3,6.3,78,0.00,,---,0.00,VWS V14.01,2013-01-06 09:24:00,
2013-01-06 01:27:00,42.4,36.1,30.00,SSE,154,8.1,8.1,78,0.00,,---,0.00,VWS V14.01,2013-01-06 09:27:00,
2013-01-06 01:28:00,42.4,36.1,30.00,SSE,152,7.2,8.1,78,0.00,,---,0.00,VWS V14.01,2013-01-06 09:28:00,
2013-01-06 01:30:00,42.4,36.4,30.00,SSE,167,7.6,8.1,79,0.00,,---,0.00,VWS V14.01,2013-01-06 09:30:00,
2013-01-06 01:33:00,42.6,36.9,30.00,South,178,4.0,4.0,80,0.00,,---,0.00,VWS V14.01,2013-01-06 09:33:00,
2013-01-06 01:35:00,42.6,36.9,30.00,SSW,199,7.6,7.6,80,0.00,,---,0.00,VWS V14.01,2013-01-06 09:35:00,
2013-01-06 01:36:00,42.6,36.9,30.00,SE,135,7.6,7.6,80,0.00,,---,0.00,VWS V14.01,2013-01-06 09:36:00,
2013-01-06 01:37:00,42.6,36.9,30.00,SSE,155,8.7,8.7,80,0.00,,---,0.00,VWS V14.01,2013-01-06 09:37:00,
2013-01-06 01:38:00,42.6,37.2,30.00,SE,129,8.1,8.7,81,0.00,,---,0.00,VWS V14.01,2013-01-06 09:38:00,
2013-01-06 01:41:00,42.6,37.2,30.00,SSE,168,8.3,8.3,81,0.00,,---,0.00,VWS V14.01,2013-01-06 09:41:00,
2013-01-06 01:42:00,42.6,37.2,30.00,SSE,168,8.3,8.3,81,0.00,,---,0.00,VWS V14.01,2013-01-06 09:42:00,
2013-01-06 01:44:00,42.6,37.2,30.00,SE,143,8.3,8.3,81,0.00,,---,0.00,VWS V14.01,2013-01-06 09:44:00,
2013-01-06 01:45:00,42.6,37.5,30.00,SSE,167,7.6,8.3,82,0.00,,---,0.00,VWS V14.01,2013-01-06 09:45:00,
2013-01-06 01:47:00,42.6,37.5,30.00,SE,130,7.6,7.6,82,0.00,,---,0.00,VWS V14.01,2013-01-06 09:47:00,
2013-01-06 01:51:00,42.8,37.7,30.00,SE,139,7.6,7.6,82,0.00,,---,0.00,VWS V14.01,2013-01-06 09:51:00,
2013-01-06 01:53:00,42.8,37.7,30.00,SE,137,6.3,8.7,82,0.00,,---,0.00,VWS V14.01,2013-01-06 09:53:00,
2013-01-06 01:54:00,42.8,38.0,30.00,SE,142,6.3,6.3,83,0.00,,---,0.00,VWS V14.01,2013-01-06 09:54:00,
2013-01-06 01:56:00,42.8,38.0,30.00,SSE,165,7.6,8.1,83,0.00,,---,0.00,VWS V14.01,2013-01-06 09:56:00,
2013-01-06 01:58:00,42.6,37.8,30.00,SE,138,8.3,8.3,83,0.00,,---,0.00,VWS V14.01,2013-01-06 09:58:00,
2013-01-06 01:59:00,42.6,37.8,30.00,SSE,147,7.6,8.3,83,0.00,,---,0.00,VWS V14.01,2013-01-06 09:59:00,
2013-01-06 02:00:00,42.6,37.8,30.00,South,170,7.6,7.6,83,0.00,,---,0.00,VWS V14.01,2013-01-06 10:00:00,
2013-01-06 02:05:00,42.4,37.7,30.00,ESE,118,4.9,4.9,83,0.00,,---,0.00,VWS V14.01,2013-01-06 10:05:00,
2013-01-06 02:06:00,42.4,37.7,30.00,SE,130,7.6,7.6,83,0.00,,---,0.00,VWS V14.01,2013-01-06 10:06:00,
2013-01-06 02:10:00,42.3,37.5,30.00,SE,137,8.3,8.3,83,0.00,,---,0.00,VWS V14.01,2013-01-06 10:10:00,
2013-01-06 02:12:00,42.3,37.5,30.00,SE,130,6.3,8.3,83,0.00,,---,0.00,VWS V14.01,2013-01-06 10:12:00,
2013-01-06 02:16:00,42.1,37.3,30.03,South,171,7.6,7.6,83,0.00,,---,0.00,VWS V14.01,2013-01-06 10:16:00,
2013-01-06 02:17:00,42.1,37.3,30.03,South,170,8.1,8.1,83,0.00,,---,0.00,VWS V14.01,2013-01-06 10:17:00,
2013-01-06 02:19:00,42.1,37.3,30.03,SE,141,8.1,8.1,83,0.00,,---,0.00,VWS V14.01,2013-01-06 10:19:00,
2013-01-06 02:22:00,42.1,37.3,30.03,South,170,9.2,9.2,83,0.00,,---,0.00,VWS V14.01,2013-01-06 10:22:00,
2013-01-06 02:23:00,42.1,37.6,30.03,ESE,115,6.3,9.2,84,0.00,,---,0.00,VWS V14.01,2013-01-06 10:23:00,
2013-01-06 02:27:00,41.9,37.4,30.03,South,183,6.3,7.6,84,0.00,,---,0.00,VWS V14.01,2013-01-06 10:27:00,
2013-01-06 02:28:00,41.9,37.4,30.03,South,172,8.7,8.7,84,0.00,,---,0.00,VWS V14.01,2013-01-06 10:28:00,
2013-01-06 02:29:00,41.9,37.4,30.03,South,172,8.7,8.7,84,0.00,,---,0.00,VWS V14.01,2013-01-06 10:29:00,
2013-01-06 02:31:00,41.9,37.4,30.03,South,172,8.7,8.7,84,0.00,,---,0.00,VWS V14.01,2013-01-06 10:31:00,
2013-01-06 02:32:00,41.9,37.4,30.03,SSE,155,8.7,8.7,84,0.00,,---,0.00,VWS V14.01,2013-01-06 10:32:00,
2013-01-06 02:36:00,41.9,37.7,30.03,SE,140,8.3,8.7,85,0.00,,---,0.00,VWS V14.01,2013-01-06 10:36:00,
2013-01-06 02:38:00,41.9,37.7,30.03,SE,146,8.7,8.7,85,0.00,,---,0.00,VWS V14.01,2013-01-06 10:38:00,
2013-01-06 02:39:00,41.9,37.7,30.03,SSE,155,8.7,8.7,85,0.00,,---,0.00,VWS V14.01,2013-01-06 10:39:00,
2013-01-06 02:43:00,41.9,37.7,30.03,SE,134,7.6,8.3,85,0.00,,---,0.00,VWS V14.01,2013-01-06 10:43:00,
2013-01-06 02:44:00,41.9,37.7,30.03,SE,138,8.7,8.7,85,0.00,,---,0.00,VWS V14.01,2013-01-06 10:44:00,
2013-01-06 02:45:00,41.9,37.7,30.03,SE,138,8.7,8.7,85,0.00,,---,0.00,VWS V14.01,2013-01-06 10:45:00,
2013-01-06 02:46:00,41.9,37.7,30.03,SE,138,8.7,8.7,85,0.00,,---,0.00,VWS V14.01,2013-01-06 10:46:00,
2013-01-06 02:49:00,42.1,37.9,30.03,SSE,149,8.7,8.7,85,0.00,,---,0.00,VWS V14.01,2013-01-06 10:49:00,
2013-01-06 02:50:00,42.1,37.9,30.03,SSE,149,8.7,8.7,85,0.00,,---,0.00,VWS V14.01,2013-01-06 10:50:00,
2013-01-06 02:53:00,42.1,37.9,30.03,South,170,8.3,8.3,85,0.00,,---,0.00,VWS V14.01,2013-01-06 10:53:00,
2013-01-06 02:54:00,42.1,37.9,30.03,SE,125,8.1,8.3,85,0.00,,---,0.00,VWS V14.01,2013-01-06 10:54:00,
2013-01-06 02:55:00,42.1,37.9,30.03,SE,125,8.1,8.1,85,0.00,,---,0.00,VWS V14.01,2013-01-06 10:55:00,
2013-01-06 02:58:00,42.1,37.9,30.00,ESE,116,8.7,8.7,85,0.00,,---,0.00,VWS V14.01,2013-01-06 10:58:00,
2013-01-06 02:59:00,42.1,37.9,30.00,SE,144,8.1,8.7,85,0.00,,---,0.00,VWS V14.01,2013-01-06 10:59:00,
2013-01-06 03:02:00,42.1,37.9,30.00,SSE,147,8.3,8.7,85,0.00,,---,0.00,VWS V14.01,2013-01-06 11:02:00,
2013-01-06 03:03:00,42.1,37.9,30.00,ESE,118,8.3,8.3,85,0.00,,---,0.00,VWS V14.01,2013-01-06 11:03:00,
2013-01-06 03:05:00,42.1,37.9,30.00,SE,142,8.3,8.7,85,0.00,,---,0.00,VWS V14.01,2013-01-06 11:05:00,
2013-01-06 03:07:00,42.1,37.9,30.00,SE,137,7.6,7.6,85,0.00,,---,0.00,VWS V14.01,2013-01-06 11:07:00,
2013-01-06 03:08:00,42.1,37.9,30.00,South,172,9.6,9.6,85,0.00,,---,0.00,VWS V14.01,2013-01-06 11:08:00,
2013-01-06 03:12:00,42.1,38.2,30.00,SSE,163,8.7,10.5,86,0.00,,---,0.00,VWS V14.01,2013-01-06 11:12:00,
2013-01-06 03:13:00,42.1,38.2,30.00,SSE,163,8.7,8.7,86,0.00,,---,0.00,VWS V14.01,2013-01-06 11:13:00,
2013-01-06 03:15:00,42.1,38.2,30.00,SE,144,8.7,10.1,86,0.00,,---,0.00,VWS V14.01,2013-01-06 11:15:00,
2013-01-06 03:18:00,42.1,38.2,30.00,South,173,8.7,8.7,86,0.00,,---,0.00,VWS V14.01,2013-01-06 11:18:00,
2013-01-06 03:19:00,42.3,38.4,30.00,South,170,8.1,8.7,86,0.00,,---,0.00,VWS V14.01,2013-01-06 11:19:00,
2013-01-06 03:21:00,42.3,38.4,30.00,South,170,8.1,8.1,86,0.00,,---,0.00,VWS V14.01,2013-01-06 11:21:00,
2013-01-06 03:24:00,42.3,38.4,30.00,South,175,5.8,10.1,86,0.00,,---,0.00,VWS V14.01,2013-01-06 11:24:00,
2013-01-06 03:26:00,42.3,38.4,30.00,SE,135,10.1,10.1,86,0.00,,---,0.00,VWS V14.01,2013-01-06 11:26:00,
2013-01-06 03:30:00,42.4,38.8,30.00,South,169,8.3,8.3,87,0.00,,---,0.00,VWS V14.01,2013-01-06 11:30:00,
2013-01-06 03:32:00,42.4,38.8,30.00,SSE,165,8.3,8.3,87,0.00,,---,0.00,VWS V14.01,2013-01-06 11:32:00,
2013-01-06 03:34:00,42.4,38.8,30.00,SSE,165,7.6,7.6,87,0.00,,---,0.00,VWS V14.01,2013-01-06 11:34:00,
2013-01-06 03:36:00,42.4,38.8,30.00,SSE,165,7.6,7.6,87,0.00,,---,0.00,VWS V14.01,2013-01-06 11:36:00,
2013-01-06 03:38:00,42.4,38.8,30.00,SSE,150,8.1,8.1,87,0.00,,---,0.00,VWS V14.01,2013-01-06 11:38:00,
2013-01-06 03:39:00,42.4,38.8,30.00,SSE,150,8.1,8.1,87,0.00,,---,0.00,VWS V14.01,2013-01-06 11:39:00,
2013-01-06 03:42:00,42.4,38.8,30.00,SSE,158,11.0,11.0,87,0.00,,---,0.00,VWS V14.01,2013-01-06 11:42:00,
2013-01-06 03:45:00,42.6,39.0,30.00,SSE,152,8.3,9.6,87,0.00,,---,0.00,VWS V14.01,2013-01-06 11:45:00,
2013-01-06 03:46:00,42.6,39.0,30.00,SSE,149,8.3,8.3,87,0.00,,---,0.00,VWS V14.01,2013-01-06 11:46:00,
2013-01-06 03:47:00,42.6,39.0,30.00,SSE,149,8.3,8.3,87,0.00,,---,0.00,VWS V14.01,2013-01-06 11:47:00,
2013-01-06 03:52:00,42.4,38.8,30.00,SSE,147,8.7,9.2,87,0.00,,---,0.00,VWS V14.01,2013-01-06 11:52:00,
2013-01-06 03:53:00,42.4,38.8,30.00,SSE,147,8.7,8.7,87,0.00,,---,0.00,VWS V14.01,2013-01-06 11:53:00,
2013-01-06 03:54:00,42.4,38.8,30.00,SSE,158,8.3,8.7,87,0.00,,---,0.00,VWS V14.01,2013-01-06 11:54:00,
2013-01-06 03:59:00,42.4,38.8,30.00,SSE,152,8.7,8.7,87,0.00,,---,0.00,VWS V14.01,2013-01-06 11:59:00,
2013-01-06 04:02:00,42.4,38.8,30.00,SE,140,8.1,8.7,87,0.00,,---,0.00,VWS V14.01,2013-01-06 12:02:00,
2013-01-06 04:03:00,42.4,38.8,30.00,SE,138,8.3,8.3,87,0.00,,---,0.00,VWS V14.01,2013-01-06 12:03:00,
2013-01-06 04:04:00,42.4,38.8,30.00,SE,138,8.3,8.3,87,0.00,,---,0.00,VWS V14.01,2013-01-06 12:04:00,
2013-01-06 04:05:00,42.4,38.8,30.00,SE,138,8.3,8.3,87,0.00,,---,0.00,VWS V14.01,2013-01-06 12:05:00,
2013-01-06 04:10:00,42.4,38.8,30.00,SE,141,8.3,8.7,87,0.00,,---,0.00,VWS V14.01,2013-01-06 12:10:00,
2013-01-06 04:11:00,42.4,38.8,30.00,SE,141,8.3,8.3,87,0.00,,---,0.00,VWS V14.01,2013-01-06 12:11:00,
2013-01-06 04:13:00,42.4,38.8,30.00,SE,138,8.1,8.3,87,0.00,,---,0.00,VWS V14.01,2013-01-06 12:13:00,
2013-01-06 04:14:00,42.4,38.8,30.00,SE,130,7.6,8.1,87,0.00,,---,0.00,VWS V14.01,2013-01-06 12:14:00,
2013-01-06 04:16:00,42.4,38.8,30.00,ESE,120,8.1,8.1,87,0.00,,---,0.00,VWS V14.01,2013-01-06 12:16:00,
2013-01-06 04:20:00,42.4,38.8,30.00,SSE,160,7.6,8.1,87,0.00,,---,0.00,VWS V14.01,2013-01-06 12:20:00,
2013-01-06 04:21:00,42.4,38.8,30.00,SSE,160,7.6,7.6,87,0.00,,---,0.00,VWS V14.01,2013-01-06 12:21:00,
2013-01-06 04:22:00,42.4,38.8,30.00,SSE,160,7.6,7.6,87,0.00,,---,0.00,VWS V14.01,2013-01-06 12:22:00,
2013-01-06 04:25:00,42.4,38.8,30.00,South,174,5.8,5.8,87,0.00,,---,0.00,VWS V14.01,2013-01-06 12:25:00,
2013-01-06 04:27:00,42.4,38.8,30.00,South,179,6.3,8.1,87,0.00,,---,0.00,VWS V14.01,2013-01-06 12:27:00,
2013-01-06 04:29:00,42.4,38.8,30.00,South,171,8.1,8.1,87,0.00,,---,0.00,VWS V14.01,2013-01-06 12:29:00,
2013-01-06 04:31:00,42.4,38.6,30.00,South,171,8.1,8.1,86,0.00,,---,0.00,VWS V14.01,2013-01-06 12:31:00,
2013-01-06 04:32:00,42.4,38.6,30.00,South,171,8.1,8.1,86,0.00,,---,0.00,VWS V14.01,2013-01-06 12:32:00,
2013-01-06 04:34:00,42.4,38.6,30.00,SSE,158,9.6,9.6,86,0.00,,---,0.00,VWS V14.01,2013-01-06 12:34:00,
2013-01-06 04:35:00,42.4,38.6,30.00,SE,141,8.1,9.6,86,0.00,,---,0.00,VWS V14.01,2013-01-06 12:35:00,
2013-01-06 04:39:00,42.3,38.4,30.00,SE,142,8.1,8.7,86,0.00,,---,0.00,VWS V14.01,2013-01-06 12:39:00,
2013-01-06 04:41:00,42.3,38.4,30.00,SSE,167,8.7,8.7,86,0.00,,---,0.00,VWS V14.01,2013-01-06 12:41:00,
2013-01-06 04:42:00,42.3,38.4,30.00,SSE,167,8.7,8.7,86,0.00,,---,0.00,VWS V14.01,2013-01-06 12:42:00,
2013-01-06 04:44:00,42.3,38.4,30.00,SE,136,8.1,8.1,86,0.00,,---,0.00,VWS V14.01,2013-01-06 12:44:00,
2013-01-06 04:49:00,42.3,38.1,30.00,SE,132,8.1,8.1,85,0.00,,---,0.00,VWS V14.01,2013-01-06 12:49:00,
2013-01-06 04:51:00,42.3,38.1,30.00,SSE,149,8.3,8.3,85,0.00,,---,0.00,VWS V14.01,2013-01-06 12:51:00,
2013-01-06 04:52:00,42.3,38.1,30.00,SSE,164,8.7,8.7,85,0.00,,---,0.00,VWS V14.01,2013-01-06 12:52:00,
2013-01-06 04:53:00,42.3,38.1,30.00,SSE,147,8.1,8.7,85,0.00,,---,0.00,VWS V14.01,2013-01-06 12:53:00,
2013-01-06 04:57:00,42.3,38.1,30.00,SSE,166,7.6,8.1,85,0.00,,---,0.00,VWS V14.01,2013-01-06 12:57:00,
2013-01-06 04:58:00,42.3,38.1,30.00,SSE,166,7.6,7.6,85,0.00,,---,0.00,VWS V14.01,2013-01-06 12:58:00,
2013-01-06 05:02:00,42.3,37.8,30.00,SE,137,8.3,8.3,84,0.00,,---,0.00,VWS V14.01,2013-01-06 13:02:00,
2013-01-06 05:05:00,42.3,37.8,30.00,SSE,154,8.7,8.7,84,0.00,,---,0.00,VWS V14.01,2013-01-06 13:05:00,
2013-01-06 05:06:00,42.3,37.8,30.00,SSE,154,8.7,8.7,84,0.00,,---,0.00,VWS V14.01,2013-01-06 13:06:00,
2013-01-06 05:07:00,42.3,37.8,30.00,SSE,154,8.7,8.7,84,0.00,,---,0.00,VWS V14.01,2013-01-06 13:07:00,
2013-01-06 05:11:00,42.3,37.8,30.00,ESE,111,8.3,8.7,84,0.00,,---,0.00,VWS V14.01,2013-01-06 13:11:00,
2013-01-06 05:12:00,42.3,37.8,30.00,SE,131,8.7,8.7,84,0.00,,---,0.00,VWS V14.01,2013-01-06 13:12:00,
2013-01-06 05:14:00,42.3,37.8,30.00,SE,124,8.3,8.7,84,0.00,,---,0.00,VWS V14.01,2013-01-06 13:14:00,
2013-01-06 05:17:00,42.3,37.8,30.00,SE,124,8.1,8.1,84,0.00,,---,0.00,VWS V14.01,2013-01-06 13:17:00,
2013-01-06 05:18:00,42.3,37.8,30.00,SE,124,8.1,8.1,84,0.00,,---,0.00,VWS V14.01,2013-01-06 13:18:00,
2013-01-06 05:20:00,42.3,37.8,30.00,South,170,8.3,8.3,84,0.00,,---,0.00,VWS V14.01,2013-01-06 13:20:00,
2013-01-06 05:22:00,42.3,37.8,30.00,SSE,163,6.3,8.3,84,0.00,,---,0.00,VWS V14.01,2013-01-06 13:22:00,
2013-01-06 05:23:00,42.3,37.8,30.00,SE,146,7.6,7.6,84,0.00,,---,0.00,VWS V14.01,2013-01-06 13:23:00,
2013-01-06 05:26:00,42.3,37.8,30.00,SE,146,8.3,8.3,84,0.00,,---,0.00,VWS V14.01,2013-01-06 13:26:00,
2013-01-06 05:27:00,42.3,37.8,30.00,SE,146,8.3,8.3,84,0.00,,---,0.00,VWS V14.01,2013-01-06 13:27:00,
2013-01-06 05:28:00,42.3,37.8,30.00,SE,146,8.3,8.3,84,0.00,,---,0.00,VWS V14.01,2013-01-06 13:28:00,
2013-01-06 05:31:00,42.3,37.8,30.00,SSE,154,5.8,8.1,84,0.00,,---,0.00,VWS V14.01,2013-01-06 13:31:00,
2013-01-06 05:33:00,42.1,37.3,30.00,SE,139,5.4,7.6,83,0.00,,---,0.00,VWS V14.01,2013-01-06 13:33:00,
2013-01-06 05:34:00,42.1,37.3,30.00,SSE,166,7.6,7.6,83,0.00,,---,0.00,VWS V14.01,2013-01-06 13:34:00,
2013-01-06 05:38:00,42.1,37.3,30.00,SSE,149,7.2,7.2,83,0.00,,---,0.00,VWS V14.01,2013-01-06 13:38:00,
2013-01-06 05:39:00,42.1,37.3,30.00,SSE,150,5.8,7.2,83,0.00,,---,0.00,VWS V14.01,2013-01-06 13:39:00,
2013-01-06 05:41:00,42.1,37.3,30.00,SE,142,5.8,5.8,83,0.00,,---,0.00,VWS V14.01,2013-01-06 13:41:00,
2013-01-06 05:44:00,42.1,37.3,30.00,SE,129,6.3,6.3,83,0.00,,---,0.00,VWS V14.01,2013-01-06 13:44:00,
2013-01-06 05:45:00,42.1,37.3,30.00,SE,141,5.8,6.3,83,0.00,,---,0.00,VWS V14.01,2013-01-06 13:45:00,
2013-01-06 05:46:00,42.1,37.3,30.00,SE,141,5.8,5.8,83,0.00,,---,0.00,VWS V14.01,2013-01-06 13:46:00,
2013-01-06 05:48:00,41.9,36.8,30.00,SE,140,5.4,7.6,82,0.00,,---,0.00,VWS V14.01,2013-01-06 13:48:00,
2013-01-06 05:50:00,41.9,36.8,30.00,SE,140,5.4,5.4,82,0.00,,---,0.00,VWS V14.01,2013-01-06 13:50:00,
2013-01-06 05:53:00,41.9,36.8,30.00,SE,124,6.3,6.3,82,0.00,,---,0.00,VWS V14.01,2013-01-06 13:53:00,
2013-01-06 05:55:00,41.9,36.8,30.00,SE,137,5.8,5.8,82,0.00,,---,0.00,VWS V14.01,2013-01-06 13:55:00,
2013-01-06 05:57:00,41.9,36.8,30.00,SE,137,5.8,5.8,82,0.00,,---,0.00,VWS V14.01,2013-01-06 13:57:00,
2013-01-06 05:59:00,42.1,37.0,30.00,ESE,114,8.7,8.7,82,0.00,,---,0.00,VWS V14.01,2013-01-06 13:59:00,
2013-01-06 06:00:00,42.1,37.0,30.00,ESE,114,8.7,8.7,82,0.00,,---,0.00,VWS V14.01,2013-01-06 14:00:00,
2013-01-06 06:01:00,42.1,37.0,30.00,ESE,119,8.7,9.2,82,0.00,,---,0.00,VWS V14.01,2013-01-06 14:01:00,
2013-01-06 06:04:00,42.1,37.0,30.00,ESE,110,8.1,8.1,82,0.00,,---,0.00,VWS V14.01,2013-01-06 14:04:00,
2013-01-06 06:05:00,42.1,37.0,30.00,SE,130,8.1,8.1,82,0.00,,---,0.00,VWS V14.01,2013-01-06 14:05:00,
2013-01-06 06:06:00,42.1,37.0,30.00,SE,125,6.7,8.1,82,0.00,,---,0.00,VWS V14.01,2013-01-06 14:06:00,
2013-01-06 06:07:00,42.1,37.0,30.00,ESE,116,8.1,8.1,82,0.00,,---,0.00,VWS V14.01,2013-01-06 14:07:00,
2013-01-06 06:10:00,42.1,37.0,30.00,ESE,117,8.7,8.7,82,0.00,,---,0.00,VWS V14.01,2013-01-06 14:10:00,
2013-01-06 06:12:00,42.1,37.0,30.00,SE,131,7.2,7.6,82,0.00,,---,0.00,VWS V14.01,2013-01-06 14:12:00,
2013-01-06 06:13:00,42.1,37.0,30.00,SE,125,6.3,7.2,82,0.00,,---,0.00,VWS V14.01,2013-01-06 14:13:00,
2013-01-06 06:14:00,41.9,36.8,30.00,ESE,115,8.1,8.1,82,0.00,,---,0.00,VWS V14.01,2013-01-06 14:14:00,
2013-01-06 06:16:00,41.9,36.8,30.00,ESE,115,8.1,8.1,82,0.00,,---,0.00,VWS V14.01,2013-01-06 14:16:00,
2013-01-06 06:17:00,41.9,36.8,30.00,ESE,115,8.1,8.1,82,0.00,,---,0.00,VWS V14.01,2013-01-06 14:17:00,
2013-01-06 06:20:00,41.9,36.8,30.00,SE,126,8.1,8.1,82,0.00,,---,0.00,VWS V14.01,2013-01-06 14:20:00,
2013-01-06 06:21:00,41.9,36.8,30.00,ESE,121,9.2,9.2,82,0.00,,---,0.00,VWS V14.01,2013-01-06 14:21:00,
2013-01-06 06:22:00,41.9,36.8,30.00,ESE,121,9.2,9.2,82,0.00,,---,0.00,VWS V14.01,2013-01-06 14:22:00,
2013-01-06 06:24:00,41.9,36.8,30.00,SE,128,8.7,8.7,82,0.00,,---,0.00,VWS V14.01,2013-01-06 14:24:00,
2013-01-06 06:27:00,41.9,36.5,30.00,ESE,121,8.1,8.1,81,0.00,,---,0.00,VWS V14.01,2013-01-06 14:27:00,
2013-01-06 06:28:00,41.9,36.5,30.00,SE,128,8.7,8.7,81,0.00,,---,0.00,VWS V14.01,2013-01-06 14:28:00,
2013-01-06 06:30:00,41.9,36.5,30.00,SE,128,8.7,8.7,81,0.00,,---,0.00,VWS V14.01,2013-01-06 14:30:00,
2013-01-06 06:32:00,41.9,36.5,30.00,SE,129,8.7,8.7,81,0.00,,---,0.00,VWS V14.01,2013-01-06 14:32:00,
2013-01-06 06:33:00,41.9,36.5,30.00,SE,129,8.7,8.7,81,0.00,,---,0.00,VWS V14.01,2013-01-06 14:33:00,
2013-01-06 06:37:00,41.9,36.5,30.00,SE,125,6.3,6.3,81,0.00,,---,0.00,VWS V14.01,2013-01-06 14:37:00,
2013-01-06 06:38:00,41.9,36.5,30.00,SE,125,8.1,8.1,81,0.00,,---,0.00,VWS V14.01,2013-01-06 14:38:00,
2013-01-06 06:39:00,41.9,36.5,30.00,SE,125,8.1,8.1,81,0.00,,---,0.00,VWS V14.01,2013-01-06 14:39:00,
2013-01-06 06:42:00,41.9,36.2,30.00,SE,136,7.6,7.6,80,0.00,,---,0.00,VWS V14.01,2013-01-06 14:42:00,
2013-01-06 06:45:00,41.9,36.2,30.00,SE,130,7.6,7.6,80,0.00,,---,0.00,VWS V14.01,2013-01-06 14:45:00,
2013-01-06 06:47:00,41.9,36.2,30.00,SSE,163,7.2,7.6,80,0.00,,---,0.00,VWS V14.01,2013-01-06 14:47:00,
2013-01-06 06:49:00,41.9,36.2,30.00,SSE,163,7.2,7.2,80,0.00,,---,0.00,VWS V14.01,2013-01-06 14:49:00,
2013-01-06 06:50:00,41.9,36.2,30.00,SSE,163,7.2,7.2,80,0.00,,---,0.00,VWS V14.01,2013-01-06 14:50:00,
2013-01-06 06:55:00,41.9,36.2,30.00,SE,140,7.6,7.6,80,0.00,,---,0.00,VWS V14.01,2013-01-06 14:55:00,
2013-01-06 06:56:00,41.9,35.9,30.00,SSE,162,8.3,8.7,79,0.00,,---,0.00,VWS V14.01,2013-01-06 14:56:00,
2013-01-06 06:57:00,41.9,35.5,30.00,SSE,162,8.3,8.3,78,0.00,,---,0.00,VWS V14.01,2013-01-06 14:57:00,
2013-01-06 06:58:00,41.9,35.5,30.00,SE,138,7.2,8.3,78,0.00,,---,0.00,VWS V14.01,2013-01-06 14:58:00,
2013-01-06 07:03:00,42.1,35.4,30.00,SE,143,8.1,8.1,77,0.00,,---,0.00,VWS V14.01,2013-01-06 15:03:00,
2013-01-06 07:04:00,42.1,35.4,30.00,SE,143,8.1,8.1,77,0.00,,---,0.00,VWS V14.01,2013-01-06 15:04:00,
2013-01-06 07:05:00,42.1,35.4,30.00,SE,143,8.1,8.1,77,0.00,,---,0.00,VWS V14.01,2013-01-06 15:05:00,
2013-01-06 07:08:00,42.1,35.1,30.00,SE,135,7.6,7.6,76,0.00,,---,0.00,VWS V14.01,2013-01-06 15:08:00,
2013-01-06 07:10:00,42.1,35.1,30.00,SE,129,7.6,7.6,76,0.00,,---,0.00,VWS V14.01,2013-01-06 15:10:00,
2013-01-06 07:12:00,42.1,35.1,30.00,SE,126,7.6,7.6,76,0.00,,---,0.00,VWS V14.01,2013-01-06 15:12:00,
2013-01-06 07:13:00,42.1,35.1,30.00,ESE,115,6.7,7.6,76,0.00,,---,0.00,VWS V14.01,2013-01-06 15:13:00,
2013-01-06 07:15:00,42.1,35.1,30.00,SE,126,7.6,7.6,76,0.00,,---,0.00,VWS V14.01,2013-01-06 15:15:00,
2013-01-06 07:17:00,42.1,35.1,30.00,ESE,109,8.1,8.1,76,0.00,,---,0.00,VWS V14.01,2013-01-06 15:17:00,
2013-01-06 07:20:00,42.1,35.1,30.00,SE,125,8.1,8.1,76,0.00,,---,0.00,VWS V14.01,2013-01-06 15:20:00,
2013-01-06 07:21:00,42.1,35.1,30.00,ESE,123,6.3,8.1,76,0.00,,---,0.00,VWS V14.01,2013-01-06 15:21:00,
2013-01-06 07:22:00,42.1,35.1,30.00,ESE,115,8.7,8.7,76,0.00,,---,0.00,VWS V14.01,2013-01-06 15:22:00,
2013-01-06 07:25:00,42.1,34.7,30.00,ESE,121,7.2,7.6,75,0.00,,---,0.00,VWS V14.01,2013-01-06 15:25:00,
2013-01-06 07:26:00,42.1,34.7,30.00,ESE,111,6.7,7.2,75,0.00,,---,0.00,VWS V14.01,2013-01-06 15:26:00,
2013-01-06 07:28:00,41.9,34.6,30.00,SE,126,8.7,8.7,75,0.00,,---,0.00,VWS V14.01,2013-01-06 15:28:00,
2013-01-06 07:30:00,41.9,34.6,30.00,ESE,120,7.2,7.2,75,0.00,,---,0.00,VWS V14.01,2013-01-06 15:30:00,
2013-01-06 07:33:00,41.9,34.6,30.00,ESE,120,7.6,7.6,75,0.00,,---,0.00,VWS V14.01,2013-01-06 15:33:00,
2013-01-06 07:34:00,41.9,34.6,30.00,ESE,107,8.7,8.7,75,0.00,,---,0.00,VWS V14.01,2013-01-06 15:34:00,
2013-01-06 07:35:00,42.1,34.7,30.00,ESE,107,8.7,8.7,75,0.00,,---,0.00,VWS V14.01,2013-01-06 15:35:00,
2013-01-06 07:38:00,42.1,34.7,30.00,ESE,105,8.3,8.3,75,0.00,,---,0.00,VWS V14.01,2013-01-06 15:38:00,
2013-01-06 07:40:00,41.9,34.6,30.00,ESE,114,8.7,8.7,75,0.00,,---,0.00,VWS V14.01,2013-01-06 15:40:00,
2013-01-06 07:41:00,41.9,34.6,30.00,ESE,114,8.7,8.7,75,0.00,,---,0.00,VWS V14.01,2013-01-06 15:41:00,
2013-01-06 07:44:00,42.1,34.7,30.00,ESE,114,10.5,10.5,75,0.00,,---,0.00,VWS V14.01,2013-01-06 15:44:00,
2013-01-06 07:46:00,42.1,34.7,30.00,ESE,115,7.6,9.2,75,0.00,,---,0.00,VWS V14.01,2013-01-06 15:46:00,
2013-01-06 07:47:00,42.1,34.7,30.00,SE,127,8.3,9.6,75,0.00,,---,0.00,VWS V14.01,2013-01-06 15:47:00,
2013-01-06 07:49:00,42.1,34.7,30.00,ESE,123,8.1,10.5,75,0.00,,---,0.00,VWS V14.01,2013-01-06 15:49:00,
2013-01-06 07:50:00,42.1,34.7,30.00,SE,124,8.7,8.7,75,0.00,,---,0.00,VWS V14.01,2013-01-06 15:50:00,
2013-01-06 07:54:00,42.1,34.7,30.00,SE,127,9.6,9.6,75,0.00,,---,0.00,VWS V14.01,2013-01-06 15:54:00,
2013-01-06 07:55:00,42.1,34.7,30.00,SE,127,8.7,9.6,75,0.00,,---,0.00,VWS V14.01,2013-01-06 15:55:00,
2013-01-06 07:59:00,42.3,34.9,30.00,SE,133,7.6,7.6,75,0.00,,---,0.00,VWS V14.01,2013-01-06 15:59:00,
2013-01-06 08:01:00,42.3,34.9,30.00,ESE,116,9.6,9.6,75,0.00,,---,0.00,VWS V14.01,2013-01-06 16:01:00,
2013-01-06 08:02:00,42.3,34.9,30.00,ESE,122,8.1,9.6,75,0.00,,---,0.00,VWS V14.01,2013-01-06 16:02:00,
2013-01-06 08:03:00,42.3,34.9,30.03,ESE,122,8.1,8.1,75,0.00,,---,0.00,VWS V14.01,2013-01-06 16:03:00,
2013-01-06 08:06:00,42.3,34.9,30.03,SE,137,8.3,8.3,75,0.00,,---,0.00,VWS V14.01,2013-01-06 16:06:00,
2013-01-06 08:08:00,42.3,34.6,30.03,ESE,122,8.7,8.7,74,0.00,,---,0.00,VWS V14.01,2013-01-06 16:08:00,
2013-01-06 08:10:00,42.3,34.6,30.03,ESE,122,8.7,8.7,74,0.00,,---,0.00,VWS V14.01,2013-01-06 16:10:00,
2013-01-06 08:11:00,42.3,34.6,30.03,ESE,122,8.7,8.7,74,0.00,,---,0.00,VWS V14.01,2013-01-06 16:11:00,
2013-01-06 08:13:00,42.3,34.6,30.03,ESE,120,8.7,8.7,74,0.00,,---,0.00,VWS V14.01,2013-01-06 16:13:00,
2013-01-06 08:15:00,42.3,34.6,30.03,SE,129,8.7,8.7,74,0.00,,---,0.00,VWS V14.01,2013-01-06 16:15:00,
2013-01-06 08:18:00,42.3,34.6,30.03,SE,129,9.2,9.2,74,0.00,,---,0.00,VWS V14.01,2013-01-06 16:18:00,
2013-01-06 08:19:00,42.3,34.6,30.03,SE,141,8.1,9.2,74,0.00,,---,0.00,VWS V14.01,2013-01-06 16:19:00,
2013-01-06 08:21:00,42.3,34.6,30.03,SE,128,7.6,8.3,74,0.00,,---,0.00,VWS V14.01,2013-01-06 16:21:00,
2013-01-06 08:25:00,42.3,34.2,30.03,SE,134,8.3,8.3,73,0.00,,---,0.00,VWS V14.01,2013-01-06 16:25:00,
2013-01-06 08:29:00,42.3,33.9,30.03,ESE,120,8.7,8.7,72,0.00,,---,0.00,VWS V14.01,2013-01-06 16:29:00,
2013-01-06 08:31:00,42.3,33.9,30.03,ESE,118,8.3,8.3,72,0.00,,---,0.00,VWS V14.01,2013-01-06 16:31:00,
2013-01-06 08:32:00,42.3,33.9,30.03,ESE,118,8.3,8.3,72,0.00,,---,0.00,VWS V14.01,2013-01-06 16:32:00,
2013-01-06 08:36:00,42.4,34.1,30.03,ESE,114,8.7,8.7,72,0.00,,---,0.00,VWS V14.01,2013-01-06 16:36:00,
2013-01-06 08:37:00,42.4,34.1,30.03,ESE,114,8.7,8.7,72,0.00,,---,0.00,VWS V14.01,2013-01-06 16:37:00,
2013-01-06 08:38:00,42.4,34.1,30.03,ESE,114,8.7,8.7,72,0.00,,---,0.00,VWS V14.01,2013-01-06 16:38:00,
2013-01-06 08:39:00,42.4,34.1,30.03,ESE,114,8.7,8.7,72,0.00,,---,0.00,VWS V14.01,2013-01-06 16:39:00,
2013-01-06 08:42:00,42.4,34.1,30.03,ESE,123,8.7,8.7,72,0.00,,---,0.00,VWS V14.01,2013-01-06 16:42:00,
2013-01-06 08:44:00,42.4,34.1,30.03,ESE,123,8.7,8.7,72,0.00,,---,0.00,VWS V14.01,2013-01-06 16:44:00,
2013-01-06 08:45:00,42.4,34.1,30.03,ESE,123,8.7,8.7,72,0.00,,---,0.00,VWS V14.01,2013-01-06 16:45:00,
2013-01-06 08:46:00,42.4,34.1,30.03,ESE,123,8.7,8.7,72,0.00,,---,0.00,VWS V14.01,2013-01-06 16:46:00,
2013-01-06 08:50:00,42.4,34.1,30.03,ESE,121,9.6,10.1,72,0.00,,---,0.00,VWS V14.01,2013-01-06 16:50:00,
2013-01-06 08:51:00,42.4,34.1,30.03,SE,129,10.5,10.5,72,0.00,,---,0.00,VWS V14.01,2013-01-06 16:51:00,
2013-01-06 08:54:00,42.4,34.1,30.03,SE,129,10.1,10.1,72,0.00,,---,0.00,VWS V14.01,2013-01-06 16:54:00,
2013-01-06 08:57:00,42.4,33.7,30.03,ESE,123,8.7,8.7,71,0.00,,---,0.00,VWS V14.01,2013-01-06 16:57:00,
2013-01-06 08:59:00,42.4,33.7,30.03,ESE,110,8.1,8.3,71,0.00,,---,0.00,VWS V14.01,2013-01-06 16:59:00,
2013-01-06 09:01:00,42.4,33.7,30.03,ESE,110,8.1,8.1,71,0.00,,---,0.00,VWS V14.01,2013-01-06 17:01:00,
2013-01-06 09:03:00,42.4,33.7,30.03,SE,131,10.1,10.1,71,0.00,,---,0.00,VWS V14.01,2013-01-06 17:03:00,
2013-01-06 09:06:00,42.6,33.9,30.03,ESE,115,9.2,10.1,71,0.00,,---,0.00,VWS V14.01,2013-01-06 17:06:00,
2013-01-06 09:08:00,42.6,33.9,30.03,SE,129,10.1,10.5,71,0.00,,---,0.00,VWS V14.01,2013-01-06 17:08:00,
2013-01-06 09:09:00,42.6,33.9,30.03,SSE,147,8.7,10.1,71,0.00,,---,0.00,VWS V14.01,2013-01-06 17:09:00,
2013-01-06 09:13:00,42.6,33.5,30.03,SE,138,8.7,8.7,70,0.00,,---,0.00,VWS V14.01,2013-01-06 17:13:00,
2013-01-06 09:14:00,42.6,33.5,30.03,ESE,120,10.5,10.5,70,0.00,,---,0.00,VWS V14.01,2013-01-06 17:14:00,
2013-01-06 09:16:00,42.6,33.5,30.03,SE,134,8.7,11.0,70,0.00,,---,0.00,VWS V14.01,2013-01-06 17:16:00,
2013-01-06 09:19:00,42.6,33.5,30.03,SE,129,8.3,8.3,70,0.00,,---,0.00,VWS V14.01,2013-01-06 17:19:00,
2013-01-06 09:20:00,42.6,33.5,30.03,SE,137,9.6,9.6,70,0.00,,---,0.00,VWS V14.01,2013-01-06 17:20:00,
2013-01-06 09:21:00,42.6,33.5,30.03,ESE,118,8.7,9.6,70,0.00,,---,0.00,VWS V14.01,2013-01-06 17:21:00,
2013-01-06 09:23:00,42.8,33.0,30.03,ESE,118,8.7,8.7,68,0.00,,---,0.00,VWS V14.01,2013-01-06 17:23:00,
2013-01-06 09:25:00,42.8,33.0,30.03,ESE,118,8.7,8.7,68,0.00,,---,0.00,VWS V14.01,2013-01-06 17:25:00,
2013-01-06 09:26:00,42.8,33.0,30.03,SE,143,8.7,8.7,68,0.00,,---,0.00,VWS V14.01,2013-01-06 17:26:00,
2013-01-06 09:28:00,43.0,32.8,30.03,ESE,118,8.1,9.2,67,0.00,,---,0.00,VWS V14.01,2013-01-06 17:28:00,
2013-01-06 09:30:00,43.0,32.8,30.03,ESE,111,8.7,8.7,67,0.00,,---,0.00,VWS V14.01,2013-01-06 17:30:00,
2013-01-06 09:31:00,43.0,32.8,30.03,ESE,111,8.7,8.7,67,0.00,,---,0.00,VWS V14.01,2013-01-06 17:31:00,
2013-01-06 09:32:00,43.0,32.8,30.03,SSE,160,9.2,9.2,67,0.00,,---,0.00,VWS V14.01,2013-01-06 17:32:00,
2013-01-06 09:36:00,43.0,32.8,30.03,SE,134,8.7,8.7,67,0.00,,---,0.00,VWS V14.01,2013-01-06 17:36:00,
2013-01-06 09:37:00,43.0,32.8,30.03,SE,134,8.7,8.7,67,0.00,,---,0.00,VWS V14.01,2013-01-06 17:37:00,
2013-01-06 09:38:00,43.0,32.8,30.03,SE,135,10.1,10.1,67,0.00,,---,0.00,VWS V14.01,2013-01-06 17:38:00,
2013-01-06 09:42:00,43.0,32.4,30.03,SE,136,8.7,10.1,66,0.00,,---,0.00,VWS V14.01,2013-01-06 17:42:00,
2013-01-06 09:44:00,43.0,32.4,30.03,ESE,123,8.1,8.1,66,0.00,,---,0.00,VWS V14.01,2013-01-06 17:44:00,
2013-01-06 09:47:00,43.0,32.0,30.03,SE,138,8.3,8.7,65,0.00,,---,0.00,VWS V14.01,2013-01-06 17:47:00,
2013-01-06 09:50:00,43.0,32.0,30.03,SE,133,10.5,11.4,65,0.00,,---,0.00,VWS V14.01,2013-01-06 17:50:00,
2013-01-06 09:51:00,43.2,32.2,30.03,SE,133,10.5,10.5,65,0.00,,---,0.00,VWS V14.01,2013-01-06 17:51:00,
2013-01-06 09:53:00,43.0,31.6,30.03,SE,143,9.2,9.2,64,0.00,,---,0.00,VWS V14.01,2013-01-06 17:53:00,
2013-01-06 09:54:00,43.0,31.6,30.03,SE,131,8.7,11.0,64,0.00,,---,0.00,VWS V14.01,2013-01-06 17:54:00,
2013-01-06 09:58:00,43.2,31.8,30.03,SE,127,10.5,10.5,64,0.00,,---,0.00,VWS V14.01,2013-01-06 17:58:00,
2013-01-06 09:59:00,43.2,31.8,30.03,SE,141,10.1,10.5,64,0.00,,---,0.00,VWS V14.01,2013-01-06 17:59:00,
2013-01-06 10:00:00,43.2,31.8,30.03,SE,141,8.3,10.1,64,0.00,,---,0.00,VWS V14.01,2013-01-06 18:00:00,
2013-01-06 10:03:00,43.2,31.8,30.03,SE,133,10.1,11.0,64,0.00,,---,0.00,VWS V14.01,2013-01-06 18:03:00,
2013-01-06 10:05:00,43.3,31.6,30.03,ESE,118,10.1,10.1,63,0.00,,---,0.00,VWS V14.01,2013-01-06 18:05:00,
2013-01-06 10:06:00,43.3,31.6,30.03,ESE,118,10.1,10.1,63,0.00,,---,0.00,VWS V14.01,2013-01-06 18:06:00,
2013-01-06 10:09:00,43.3,31.6,30.03,SE,140,10.1,10.1,63,0.00,,---,0.00,VWS V14.01,2013-01-06 18:09:00,
2013-01-06 10:11:00,43.3,31.6,30.03,SE,129,8.3,10.1,63,0.00,,---,0.00,VWS V14.01,2013-01-06 18:11:00,
2013-01-06 10:12:00,43.3,31.6,30.03,SE,131,8.1,8.3,63,0.00,,---,0.00,VWS V14.01,2013-01-06 18:12:00,
2013-01-06 10:14:00,43.3,31.6,30.03,SSE,165,7.6,8.7,63,0.00,,---,0.00,VWS V14.01,2013-01-06 18:14:00,
2013-01-06 10:16:00,43.3,31.6,30.03,ESE,120,9.2,9.2,63,0.00,,---,0.00,VWS V14.01,2013-01-06 18:16:00,
2013-01-06 10:17:00,43.5,31.8,30.03,ESE,120,9.2,9.2,63,0.00,,---,0.00,VWS V14.01,2013-01-06 18:17:00,
2013-01-06 10:21:00,43.5,31.8,30.03,SE,136,8.3,10.5,63,0.00,,---,0.00,VWS V14.01,2013-01-06 18:21:00,
2013-01-06 10:23:00,43.5,31.4,30.03,SE,144,8.1,8.7,62,0.00,,---,0.00,VWS V14.01,2013-01-06 18:23:00,
2013-01-06 10:26:00,43.5,31.4,30.03,SE,131,7.6,7.6,62,0.00,,---,0.00,VWS V14.01,2013-01-06 18:26:00,
2013-01-06 10:28:00,43.5,31.4,30.03,SE,124,9.2,9.2,62,0.00,,---,0.00,VWS V14.01,2013-01-06 18:28:00,
2013-01-06 10:33:00,43.5,31.4,30.03,SE,135,8.3,8.3,62,0.00,,---,0.00,VWS V14.01,2013-01-06 18:33:00,
2013-01-06 10:34:00,43.5,31.0,30.03,ESE,118,10.1,10.1,61,0.00,,---,0.00,VWS V14.01,2013-01-06 18:34:00,
2013-01-06 10:35:00,43.5,31.0,30.03,ESE,118,10.1,10.1,61,0.00,,---,0.00,VWS V14.01,2013-01-06 18:35:00,
2013-01-06 10:38:00,43.5,30.6,30.03,SE,138,8.7,8.7,60,0.00,,---,0.00,VWS V14.01,2013-01-06 18:38:00,
2013-01-06 10:40:00,43.5,30.6,30.03,SSE,149,8.3,9.2,60,0.00,,---,0.00,VWS V14.01,2013-01-06 18:40:00,
2013-01-06 10:43:00,43.5,30.2,30.03,SE,127,8.1,8.7,59,0.00,,---,0.00,VWS V14.01,2013-01-06 18:43:00,
2013-01-06 10:46:00,43.5,30.2,30.03,SE,124,8.7,8.7,59,0.00,,---,0.00,VWS V14.01,2013-01-06 18:46:00,
2013-01-06 10:47:00,43.5,30.2,30.03,SE,124,8.7,8.7,59,0.00,,---,0.00,VWS V14.01,2013-01-06 18:47:00,
2013-01-06 10:49:00,43.5,30.2,30.03,SE,125,8.1,8.1,59,0.00,,---,0.00,VWS V14.01,2013-01-06 18:49:00,
2013-01-06 10:52:00,43.5,30.2,30.03,SE,145,7.6,7.6,59,0.00,,---,0.00,VWS V14.01,2013-01-06 18:52:00,
2013-01-06 10:54:00,43.5,29.7,30.03,SSE,162,8.1,8.1,58,0.00,,---,0.00,VWS V14.01,2013-01-06 18:54:00,
2013-01-06 10:55:00,43.5,29.7,30.03,ESE,121,7.6,8.1,58,0.00,,---,0.00,VWS V14.01,2013-01-06 18:55:00,
2013-01-06 10:59:00,43.7,29.5,30.03,SSE,165,8.7,8.7,57,0.00,,---,0.00,VWS V14.01,2013-01-06 18:59:00,
2013-01-06 11:00:00,43.7,29.5,30.03,SSE,165,8.7,8.7,57,0.00,,---,0.00,VWS V14.01,2013-01-06 19:00:00,
2013-01-06 11:01:00,43.7,29.5,30.03,SSE,165,8.7,8.7,57,0.00,,---,0.00,VWS V14.01,2013-01-06 19:01:00,
2013-01-06 11:03:00,43.7,29.5,30.03,South,170,7.6,8.7,57,0.00,,---,0.00,VWS V14.01,2013-01-06 19:03:00,
2013-01-06 11:04:00,43.7,29.5,30.03,SE,143,10.1,10.1,57,0.00,,---,0.00,VWS V14.01,2013-01-06 19:04:00,
2013-01-06 11:07:00,43.7,29.5,30.03,SSE,166,8.7,9.6,57,0.00,,---,0.00,VWS V14.01,2013-01-06 19:07:00,
2013-01-06 11:08:00,43.7,29.5,30.03,SSE,166,8.7,8.7,57,0.00,,---,0.00,VWS V14.01,2013-01-06 19:08:00,
2013-01-06 11:10:00,43.7,29.0,30.03,SSE,167,8.7,11.0,56,0.00,,---,0.00,VWS V14.01,2013-01-06 19:10:00,
2013-01-06 11:11:00,43.7,29.0,30.03,SSE,159,8.3,8.7,56,0.00,,---,0.00,VWS V14.01,2013-01-06 19:11:00,
2013-01-06 11:13:00,43.7,28.6,30.03,South,186,11.0,11.0,55,0.00,,---,0.00,VWS V14.01,2013-01-06 19:13:00,
2013-01-06 11:14:00,43.7,28.6,30.03,SSW,194,8.7,11.0,55,0.00,,---,0.00,VWS V14.01,2013-01-06 19:14:00,
2013-01-06 11:18:00,43.9,28.3,30.00,South,181,5.8,7.6,54,0.00,,---,0.00,VWS V14.01,2013-01-06 19:18:00,
2013-01-06 11:20:00,43.9,27.9,30.00,SE,136,8.1,8.1,53,0.00,,---,0.00,VWS V14.01,2013-01-06 19:20:00,
2013-01-06 11:23:00,43.9,28.3,30.00,SE,137,8.7,8.7,54,0.00,,---,0.00,VWS V14.01,2013-01-06 19:23:00,
2013-01-06 11:24:00,43.9,28.3,30.00,SSE,160,7.6,8.7,54,0.00,,---,0.00,VWS V14.01,2013-01-06 19:24:00,
2013-01-06 11:25:00,43.9,28.3,30.00,SSE,151,9.2,9.2,54,0.00,,---,0.00,VWS V14.01,2013-01-06 19:25:00,
2013-01-06 11:30:00,43.9,28.3,30.00,SE,126,8.1,8.1,54,0.00,,---,0.00,VWS V14.01,2013-01-06 19:30:00,
2013-01-06 11:31:00,43.9,28.3,30.00,SE,139,8.1,10.1,54,0.00,,---,0.00,VWS V14.01,2013-01-06 19:31:00,
2013-01-06 11:36:00,43.9,28.3,30.00,SE,136,8.1,8.1,54,0.00,,---,0.00,VWS V14.01,2013-01-06 19:36:00,
2013-01-06 11:37:00,43.9,28.3,30.00,SSE,167,7.6,8.1,54,0.00,,---,0.00,VWS V14.01,2013-01-06 19:37:00,
2013-01-06 11:40:00,43.9,28.3,30.00,SSE,161,8.3,8.7,54,0.00,,---,0.00,VWS V14.01,2013-01-06 19:40:00,
2013-01-06 11:41:00,43.9,28.3,30.00,SSE,161,8.3,8.3,54,0.00,,---,0.00,VWS V14.01,2013-01-06 19:41:00,
2013-01-06 11:42:00,43.9,28.3,30.00,SE,142,8.3,8.3,54,0.00,,---,0.00,VWS V14.01,2013-01-06 19:42:00,
2013-01-06 11:48:00,43.9,28.3,30.00,SSE,159,8.7,8.7,54,0.00,,---,0.00,VWS V14.01,2013-01-06 19:48:00,
2013-01-06 11:55:00,44.1,28.5,30.00,SSE,166,8.3,8.7,54,0.00,,---,0.00,VWS V14.01,2013-01-06 19:55:00,
2013-01-06 11:57:00,44.1,28.5,30.00,SSE,168,8.7,8.7,54,0.00,,---,0.00,VWS V14.01,2013-01-06 19:57:00,
2013-01-06 12:02:00,44.1,28.5,30.00,SE,141,8.1,8.1,54,0.00,,---,0.00,VWS V14.01,2013-01-06 20:02:00,
2013-01-06 12:06:00,44.1,28.9,30.00,SE,142,6.3,6.3,55,0.00,,---,0.00,VWS V14.01,2013-01-06 20:06:00,
2013-01-06 12:11:00,44.1,28.5,30.00,South,188,8.7,8.7,54,0.00,,---,0.00,VWS V14.01,2013-01-06 20:11:00,
2013-01-06 12:12:00,44.1,28.5,30.00,SSE,163,8.1,10.5,54,0.00,,---,0.00,VWS V14.01,2013-01-06 20:12:00,
2013-01-06 12:13:00,44.1,28.5,30.00,SSE,154,8.1,8.1,54,0.00,,---,0.00,VWS V14.01,2013-01-06 20:13:00,
2013-01-06 12:16:00,44.1,28.5,29.97,SSW,209,11.0,11.0,54,0.00,,---,0.00,VWS V14.01,2013-01-06 20:16:00,
2013-01-06 12:19:00,44.2,27.3,29.97,South,169,8.7,8.7,51,0.00,,---,0.00,VWS V14.01,2013-01-06 20:19:00,
2013-01-06 12:23:00,44.2,26.8,29.97,SSW,197,8.7,9.2,50,0.00,,---,0.00,VWS V14.01,2013-01-06 20:23:00,
2013-01-06 12:24:00,44.2,26.8,29.97,SSE,168,10.1,10.1,50,0.00,,---,0.00,VWS V14.01,2013-01-06 20:24:00,
2013-01-06 12:27:00,44.4,26.0,29.97,South,191,8.3,8.3,48,0.00,,---,0.00,VWS V14.01,2013-01-06 20:27:00,
2013-01-06 12:28:00,44.4,26.0,29.97,SSW,196,8.3,8.3,48,0.00,,---,0.00,VWS V14.01,2013-01-06 20:28:00,
2013-01-06 12:29:00,44.6,25.1,29.97,South,179,8.1,9.2,46,0.00,,---,0.00,VWS V14.01,2013-01-06 20:29:00,
2013-01-06 12:32:00,44.6,25.6,29.97,South,187,7.6,8.7,47,0.00,,---,0.00,VWS V14.01,2013-01-06 20:32:00,
2013-01-06 12:34:00,44.6,25.1,29.97,South,171,8.1,8.1,46,0.00,,---,0.00,VWS V14.01,2013-01-06 20:34:00,
2013-01-06 12:36:00,44.8,25.8,29.97,South,179,8.1,8.1,47,0.00,,---,0.00,VWS V14.01,2013-01-06 20:36:00,
2013-01-06 12:37:00,44.8,25.8,29.97,South,179,8.1,8.1,47,0.00,,---,0.00,VWS V14.01,2013-01-06 20:37:00,
2013-01-06 12:39:00,44.8,25.8,29.97,South,179,8.1,8.1,47,0.00,,---,0.00,VWS V14.01,2013-01-06 20:39:00,
2013-01-06 12:41:00,44.8,25.8,29.97,SSW,195,8.3,8.3,47,0.00,,---,0.00,VWS V14.01,2013-01-06 20:41:00,
2013-01-06 12:43:00,44.8,25.3,29.97,South,171,7.6,10.1,46,0.00,,---,0.00,VWS V14.01,2013-01-06 20:43:00,
2013-01-06 12:44:00,44.8,25.3,29.97,SSW,203,9.6,9.6,46,0.00,,---,0.00,VWS V14.01,2013-01-06 20:44:00,
2013-01-06 12:47:00,44.8,25.3,29.97,South,170,10.1,10.1,46,0.00,,---,0.00,VWS V14.01,2013-01-06 20:47:00,
2013-01-06 12:51:00,44.8,25.3,29.97,SSE,147,9.2,11.0,46,0.00,,---,0.00,VWS V14.01,2013-01-06 20:51:00,
2013-01-06 12:54:00,44.8,26.3,29.97,SSE,156,10.5,10.5,48,0.00,,---,0.00,VWS V14.01,2013-01-06 20:54:00,
2013-01-06 12:59:00,44.8,26.3,29.97,South,188,10.5,10.5,48,0.00,,---,0.00,VWS V14.01,2013-01-06 20:59:00,
2013-01-06 13:00:00,44.8,26.3,29.97,SSW,197,8.3,10.5,48,0.00,,---,0.00,VWS V14.01,2013-01-06 21:00:00,
2013-01-06 13:05:00,44.8,26.3,29.97,South,171,10.5,10.5,48,0.00,,---,0.00,VWS V14.01,2013-01-06 21:05:00,
2013-01-06 13:06:00,44.8,26.3,29.97,SSE,158,10.1,10.5,48,0.00,,---,0.00,VWS V14.01,2013-01-06 21:06:00,
2013-01-06 13:07:00,44.8,26.3,29.97,SSE,158,10.1,10.1,48,0.00,,---,0.00,VWS V14.01,2013-01-06 21:07:00,
2013-01-06 13:09:00,44.8,26.8,29.97,SE,140,8.7,10.5,49,0.00,,---,0.00,VWS V14.01,2013-01-06 21:09:00,
2013-01-06 13:12:00,44.8,26.8,29.97,SSE,168,8.7,11.0,49,0.00,,---,0.00,VWS V14.01,2013-01-06 21:12:00,
2013-01-06 13:15:00,44.8,26.8,29.97,South,170,10.5,10.5,49,0.00,,---,0.00,VWS V14.01,2013-01-06 21:15:00,
2013-01-06 13:16:00,44.8,26.8,29.97,SE,137,8.7,10.5,49,0.00,,---,0.00,VWS V14.01,2013-01-06 21:16:00,
2013-01-06 13:19:00,44.8,26.3,29.97,SSE,168,11.0,11.0,48,0.00,,---,0.00,VWS V14.01,2013-01-06 21:19:00,
2013-01-06 13:21:00,44.8,26.3,29.97,SSE,165,10.1,10.1,48,0.00,,---,0.00,VWS V14.01,2013-01-06 21:21:00,
2013-01-06 13:22:00,44.8,26.3,29.97,SE,128,8.3,10.1,48,0.00,,---,0.00,VWS V14.01,2013-01-06 21:22:00,
2013-01-06 13:25:00,45.0,26.5,29.97,SSE,168,10.5,10.5,48,0.00,,---,0.00,VWS V14.01,2013-01-06 21:25:00,
2013-01-06 13:27:00,45.0,26.0,29.97,SSE,168,8.7,10.5,47,0.00,,---,0.00,VWS V14.01,2013-01-06 21:27:00,
2013-01-06 13:28:00,45.0,26.0,29.97,South,169,10.1,10.1,47,0.00,,---,0.00,VWS V14.01,2013-01-06 21:28:00,
2013-01-06 13:31:00,45.1,26.1,29.97,SSE,167,8.1,10.1,47,0.00,,---,0.00,VWS V14.01,2013-01-06 21:31:00,
2013-01-06 13:32:00,45.1,26.1,29.97,SSE,167,8.1,8.1,47,0.00,,---,0.00,VWS V14.01,2013-01-06 21:32:00,
2013-01-06 13:33:00,45.1,26.1,29.97,South,169,8.3,8.3,47,0.00,,---,0.00,VWS V14.01,2013-01-06 21:33:00,
2013-01-06 13:35:00,45.1,25.6,29.97,South,169,7.6,8.7,46,0.00,,---,0.00,VWS V14.01,2013-01-06 21:35:00,
2013-01-06 13:38:00,45.1,25.6,29.97,SSW,193,6.3,6.3,46,0.00,,---,0.00,VWS V14.01,2013-01-06 21:38:00,
2013-01-06 13:40:00,45.1,25.6,29.97,SSW,195,8.7,10.1,46,0.00,,---,0.00,VWS V14.01,2013-01-06 21:40:00,
2013-01-06 13:41:00,45.1,25.6,29.97,South,179,8.1,10.5,46,0.00,,---,0.00,VWS V14.01,2013-01-06 21:41:00,
2013-01-06 13:43:00,45.1,24.5,29.97,SE,143,7.6,8.7,44,0.00,,---,0.00,VWS V14.01,2013-01-06 21:43:00,
2013-01-06 13:45:00,45.3,25.2,29.97,SSE,162,7.6,7.6,45,0.00,,---,0.00,VWS V14.01,2013-01-06 21:45:00,
2013-01-06 13:46:00,45.3,25.8,29.97,South,183,5.8,7.6,46,0.00,,---,0.00,VWS V14.01,2013-01-06 21:46:00,
2013-01-06 13:48:00,45.3,25.8,29.97,South,177,8.1,8.1,46,0.00,,---,0.00,VWS V14.01,2013-01-06 21:48:00,
2013-01-06 13:51:00,45.3,25.8,29.97,South,186,8.3,8.3,46,0.00,,---,0.00,VWS V14.01,2013-01-06 21:51:00,
2013-01-06 13:53:00,45.3,25.8,29.97,SSE,162,7.6,8.3,46,0.00,,---,0.00,VWS V14.01,2013-01-06 21:53:00,
2013-01-06 13:54:00,45.3,25.8,29.97,South,169,7.6,7.6,46,0.00,,---,0.00,VWS V14.01,2013-01-06 21:54:00,
2013-01-06 13:56:00,45.3,25.8,29.97,South,190,8.1,8.7,46,0.00,,---,0.00,VWS V14.01,2013-01-06 21:56:00,
2013-01-06 13:57:00,45.3,25.8,29.97,SSW,197,7.6,8.1,46,0.00,,---,0.00,VWS V14.01,2013-01-06 21:57:00,
2013-01-06 14:00:00,45.3,25.8,29.97,SSE,148,5.4,5.4,46,0.00,,---,0.00,VWS V14.01,2013-01-06 22:00:00,
2013-01-06 14:02:00,45.3,25.8,29.97,SSE,165,8.7,8.7,46,0.00,,---,0.00,VWS V14.01,2013-01-06 22:02:00,
2013-01-06 14:03:00,45.3,25.8,29.97,SSE,165,8.7,8.7,46,0.00,,---,0.00,VWS V14.01,2013-01-06 22:03:00,
2013-01-06 14:05:00,45.3,25.8,29.97,SE,143,9.6,9.6,46,0.00,,---,0.00,VWS V14.01,2013-01-06 22:05:00,
2013-01-06 14:07:00,45.3,25.8,29.97,SSE,157,8.1,9.6,46,0.00,,---,0.00,VWS V14.01,2013-01-06 22:07:00,
2013-01-06 14:11:00,45.5,26.5,29.97,South,172,8.7,8.7,47,0.00,,---,0.00,VWS V14.01,2013-01-06 22:11:00,
2013-01-06 14:12:00,45.5,26.5,29.97,South,172,8.7,8.7,47,0.00,,---,0.00,VWS V14.01,2013-01-06 22:12:00,
2013-01-06 14:16:00,45.5,26.5,29.97,South,184,10.5,10.5,47,0.00,,---,0.00,VWS V14.01,2013-01-06 22:16:00,
2013-01-06 14:18:00,45.5,26.5,29.97,SE,144,7.6,8.3,47,0.00,,---,0.00,VWS V14.01,2013-01-06 22:18:00,
2013-01-06 14:21:00,45.5,26.5,29.97,SE,137,8.7,8.7,47,0.00,,---,0.00,VWS V14.01,2013-01-06 22:21:00,
2013-01-06 14:25:00,45.7,27.1,29.97,SE,129,12.3,12.3,48,0.00,,---,0.00,VWS V14.01,2013-01-06 22:25:00,
2013-01-06 14:26:00,45.7,27.1,29.97,SE,129,12.3,12.3,48,0.00,,---,0.00,VWS V14.01,2013-01-06 22:26:00,
2013-01-06 14:29:00,45.7,27.1,29.97,South,172,8.7,12.3,48,0.00,,---,0.00,VWS V14.01,2013-01-06 22:29:00,
2013-01-06 14:31:00,45.7,27.1,29.97,SE,131,8.1,10.5,48,0.00,,---,0.00,VWS V14.01,2013-01-06 22:31:00,
2013-01-06 14:32:00,45.7,26.6,29.94,SSE,166,10.5,10.5,47,0.00,,---,0.00,VWS V14.01,2013-01-06 22:32:00,
2013-01-06 14:37:00,45.7,26.6,29.94,SSE,154,8.7,11.0,47,0.00,,---,0.00,VWS V14.01,2013-01-06 22:37:00,
2013-01-06 14:39:00,45.7,26.1,29.94,South,175,10.1,10.5,46,0.00,,---,0.00,VWS V14.01,2013-01-06 22:39:00,
2013-01-06 14:41:00,45.7,26.1,29.94,SE,145,8.3,10.1,46,0.00,,---,0.00,VWS V14.01,2013-01-06 22:41:00,
2013-01-06 14:44:00,45.7,26.1,29.94,SSE,160,8.3,8.3,46,0.00,,---,0.00,VWS V14.01,2013-01-06 22:44:00,
2013-01-06 14:45:00,45.7,26.1,29.94,SSE,160,8.3,8.3,46,0.00,,---,0.00,VWS V14.01,2013-01-06 22:45:00,
2013-01-06 14:48:00,45.7,25.6,29.94,SE,138,10.5,10.5,45,0.00,,---,0.00,VWS V14.01,2013-01-06 22:48:00,
2013-01-06 14:51:00,45.7,25.6,29.94,South,182,11.0,11.0,45,0.00,,---,0.00,VWS V14.01,2013-01-06 22:51:00,
2013-01-06 14:52:00,45.7,25.6,29.94,SSE,168,11.0,11.0,45,0.00,,---,0.00,VWS V14.01,2013-01-06 22:52:00,
2013-01-06 14:53:00,45.7,25.6,29.94,South,171,10.1,11.0,45,0.00,,---,0.00,VWS V14.01,2013-01-06 22:53:00,
2013-01-06 14:55:00,45.5,24.9,29.94,South,171,10.1,10.1,44,0.00,,---,0.00,VWS V14.01,2013-01-06 22:55:00,
2013-01-06 14:56:00,45.5,24.9,29.94,South,171,10.1,10.1,44,0.00,,---,0.00,VWS V14.01,2013-01-06 22:56:00,
2013-01-06 14:58:00,45.5,25.4,29.94,South,171,11.0,11.0,45,0.00,,---,0.00,VWS V14.01,2013-01-06 22:58:00,
2013-01-06 15:00:00,45.5,25.4,29.94,South,171,11.0,11.0,45,0.00,,---,0.00,VWS V14.01,2013-01-06 23:00:00,
2013-01-06 15:03:00,45.5,24.9,29.94,South,169,10.5,10.5,44,0.00,,---,0.00,VWS V14.01,2013-01-06 23:03:00,
2013-01-06 15:04:00,45.5,25.4,29.94,South,173,11.0,11.0,45,0.00,,---,0.00,VWS V14.01,2013-01-06 23:04:00,
2013-01-06 15:06:00,45.5,25.4,29.94,South,171,10.5,10.5,45,0.00,,---,0.00,VWS V14.01,2013-01-06 23:06:00,
2013-01-06 15:08:00,45.5,24.9,29.94,South,171,10.1,10.1,44,0.00,,---,0.00,VWS V14.01,2013-01-06 23:08:00,
2013-01-06 15:09:00,45.5,24.9,29.94,South,169,12.3,12.3,44,0.00,,---,0.00,VWS V14.01,2013-01-06 23:09:00,
2013-01-06 15:12:00,45.5,25.4,29.94,South,186,10.1,10.1,45,0.00,,---,0.00,VWS V14.01,2013-01-06 23:12:00,
2013-01-06 15:15:00,45.3,25.2,29.94,South,182,11.9,13.2,45,0.00,,---,0.00,VWS V14.01,2013-01-06 23:15:00,
2013-01-06 15:18:00,45.3,24.7,29.94,South,176,10.1,11.0,44,0.00,,---,0.00,VWS V14.01,2013-01-06 23:18:00,
2013-01-06 15:20:00,45.3,24.7,29.94,SSE,161,8.7,10.1,44,0.00,,---,0.00,VWS V14.01,2013-01-06 23:20:00,
2013-01-06 15:22:00,45.3,25.8,29.94,South,186,12.8,12.8,46,0.00,,---,0.00,VWS V14.01,2013-01-06 23:22:00,
2013-01-06 15:25:00,45.3,26.3,29.94,South,170,10.1,10.1,47,0.00,,---,0.00,VWS V14.01,2013-01-06 23:25:00,
2013-01-06 15:26:00,45.3,26.3,29.94,SSE,167,8.7,10.1,47,0.00,,---,0.00,VWS V14.01,2013-01-06 23:26:00,
2013-01-06 15:28:00,45.3,26.3,29.94,South,170,6.3,6.3,47,0.00,,---,0.00,VWS V14.01,2013-01-06 23:28:00,
2013-01-06 15:33:00,45.1,27.1,29.94,SSE,167,11.0,11.0,49,0.00,,---,0.00,VWS V14.01,2013-01-06 23:33:00,
2013-01-06 15:35:00,45.1,27.6,29.94,South,188,12.8,12.8,50,0.00,,---,0.00,VWS V14.01,2013-01-06 23:35:00,
2013-01-06 15:36:00,45.1,27.6,29.94,South,188,12.8,12.8,50,0.00,,---,0.00,VWS V14.01,2013-01-06 23:36:00,
2013-01-06 15:37:00,45.1,27.6,29.94,SSW,194,11.0,12.8,50,0.00,,---,0.00,VWS V14.01,2013-01-06 23:37:00,
2013-01-06 15:42:00,44.8,28.2,29.94,SSW,194,8.3,8.3,52,0.00,,---,0.00,VWS V14.01,2013-01-06 23:42:00,
2013-01-06 15:43:00,44.8,28.2,29.94,SSE,164,8.7,9.6,52,0.00,,---,0.00,VWS V14.01,2013-01-06 23:43:00,
2013-01-06 15:47:00,44.6,28.5,29.94,SE,142,8.3,8.3,53,0.04,,---,0.04,VWS V14.01,2013-01-06 23:47:00,
2013-01-06 15:49:00,44.6,29.0,29.94,SSE,160,8.1,8.7,54,0.04,,---,0.04,VWS V14.01,2013-01-06 23:49:00,
2013-01-06 15:50:00,44.4,29.3,29.94,SSE,160,8.1,8.1,55,0.04,,---,0.04,VWS V14.01,2013-01-06 23:50:00,
2013-01-06 15:54:00,44.4,29.7,29.94,South,169,8.3,8.7,56,0.04,,---,0.04,VWS V14.01,2013-01-06 23:54:00,
2013-01-06 15:55:00,44.2,29.5,29.94,South,169,8.3,8.3,56,0.04,,---,0.04,VWS V14.01,2013-01-06 23:55:00,
2013-01-06 15:56:00,44.2,29.5,29.94,South,184,8.7,8.7,56,0.04,,---,0.04,VWS V14.01,2013-01-06 23:56:00,
2013-01-06 15:57:00,44.2,29.5,29.94,SSE,168,10.1,10.1,56,0.04,,---,0.04,VWS V14.01,2013-01-06 23:57:00,
2013-01-06 16:00:00,44.2,30.4,29.94,South,186,8.7,9.6,58,0.04,,---,0.04,VWS V14.01,2013-01-07 00:00:00,
2013-01-06 16:01:00,44.2,30.4,29.94,SSE,163,8.7,8.7,58,0.04,,---,0.04,VWS V14.01,2013-01-07 00:01:00,
2013-01-06 16:04:00,44.1,30.7,29.94,SE,131,8.3,8.3,59,0.04,,---,0.04,VWS V14.01,2013-01-07 00:04:00,
2013-01-06 16:05:00,44.1,31.1,29.94,SE,131,8.3,8.3,60,0.04,,---,0.04,VWS V14.01,2013-01-07 00:05:00,
2013-01-06 16:11:00,44.1,31.5,29.94,SSE,155,12.8,12.8,61,0.04,,---,0.04,VWS V14.01,2013-01-07 00:11:00,
2013-01-06 16:12:00,44.1,31.9,29.94,SSE,161,10.5,12.8,62,0.04,,---,0.04,VWS V14.01,2013-01-07 00:12:00,
2013-01-06 16:13:00,44.1,31.9,29.94,SE,134,10.5,10.5,62,0.04,,---,0.04,VWS V14.01,2013-01-07 00:13:00,
2013-01-06 16:14:00,44.1,32.3,29.94,SE,143,11.0,11.0,63,0.04,,---,0.04,VWS V14.01,2013-01-07 00:14:00,
2013-01-06 16:17:00,44.1,32.7,29.94,SSE,153,8.3,11.0,64,0.04,,---,0.04,VWS V14.01,2013-01-07 00:17:00,
2013-01-06 16:18:00,44.1,33.1,29.94,SSE,153,8.3,8.3,65,0.04,,---,0.04,VWS V14.01,2013-01-07 00:18:00,
2013-01-06 16:21:00,44.1,33.1,29.94,SE,136,10.1,10.5,65,0.04,,---,0.04,VWS V14.01,2013-01-07 00:21:00,
2013-01-06 16:23:00,44.1,33.8,29.94,SE,136,10.1,10.1,67,0.04,,---,0.04,VWS V14.01,2013-01-07 00:23:00,
2013-01-06 16:24:00,44.1,34.2,29.94,South,172,9.2,12.8,68,0.04,,---,0.04,VWS V14.01,2013-01-07 00:24:00,
2013-01-06 16:28:00,44.1,34.6,29.94,SE,138,11.0,11.0,69,0.04,,---,0.04,VWS V14.01,2013-01-07 00:28:00,
2013-01-06 16:30:00,44.1,34.6,29.94,SE,143,10.5,10.5,69,0.04,,---,0.04,VWS V14.01,2013-01-07 00:30:00,
2013-01-06 16:32:00,43.9,34.4,29.94,SE,137,10.1,11.0,69,0.04,,---,0.04,VWS V14.01,2013-01-07 00:32:00,
2013-01-06 16:34:00,43.9,34.7,29.94,ESE,123,8.7,10.1,70,0.04,,---,0.04,VWS V14.01,2013-01-07 00:34:00,
2013-01-06 16:36:00,43.9,34.7,29.94,ESE,123,8.7,8.7,70,0.04,,---,0.04,VWS V14.01,2013-01-07 00:36:00,
2013-01-06 16:39:00,44.1,35.3,29.94,SE,138,10.1,11.9,71,0.04,,---,0.04,VWS V14.01,2013-01-07 00:39:00,
2013-01-06 16:40:00,44.1,35.3,29.94,SE,138,10.1,10.1,71,0.04,,---,0.04,VWS V14.01,2013-01-07 00:40:00,
2013-01-06 16:41:00,44.1,35.3,29.94,SE,138,10.1,10.1,71,0.04,,---,0.04,VWS V14.01,2013-01-07 00:41:00,
2013-01-06 16:43:00,43.9,35.1,29.94,SE,130,11.0,11.0,71,0.04,,---,0.04,VWS V14.01,2013-01-07 00:43:00,
2013-01-06 16:46:00,43.9,35.5,29.94,ESE,118,8.3,8.3,72,0.04,,---,0.04,VWS V14.01,2013-01-07 00:46:00,
2013-01-06 16:48:00,43.9,35.5,29.94,SE,126,12.8,12.8,72,0.00,,---,0.04,VWS V14.01,2013-01-07 00:48:00,
2013-01-06 16:51:00,43.7,35.3,29.94,ESE,118,13.6,13.6,72,0.00,,---,0.04,VWS V14.01,2013-01-07 00:51:00,
2013-01-06 16:52:00,43.7,35.3,29.94,ESE,118,13.6,13.6,72,0.00,,---,0.04,VWS V14.01,2013-01-07 00:52:00,
2013-01-06 16:55:00,43.7,35.3,29.94,SE,128,8.7,10.1,72,0.00,,---,0.04,VWS V14.01,2013-01-07 00:55:00,
2013-01-06 16:57:00,43.7,35.3,29.94,SE,124,11.0,11.0,72,0.00,,---,0.04,VWS V14.01,2013-01-07 00:57:00,
2013-01-06 16:58:00,43.7,35.3,29.94,SE,124,11.0,11.0,72,0.00,,---,0.04,VWS V14.01,2013-01-07 00:58:00,
2013-01-06 17:00:00,43.7,35.3,29.91,SE,124,8.7,11.0,72,0.00,,---,0.04,VWS V14.01,2013-01-07 01:00:00,
2013-01-06 17:03:00,43.7,35.3,29.91,SE,127,9.6,9.6,72,0.00,,---,0.04,VWS V14.01,2013-01-07 01:03:00,
2013-01-06 17:04:00,43.7,35.3,29.91,ESE,123,8.7,10.1,72,0.00,,---,0.04,VWS V14.01,2013-01-07 01:04:00,
2013-01-06 17:05:00,43.7,35.3,29.91,SE,128,10.1,10.1,72,0.00,,---,0.04,VWS V14.01,2013-01-07 01:05:00,
2013-01-06 17:07:00,43.7,35.3,29.91,SE,124,10.1,10.1,72,0.00,,---,0.04,VWS V14.01,2013-01-07 01:07:00,
2013-01-06 17:08:00,43.7,35.3,29.91,ESE,111,12.3,12.3,72,0.00,,---,0.04,VWS V14.01,2013-01-07 01:08:00,
2013-01-06 17:11:00,43.7,35.3,29.91,ESE,111,12.3,12.3,72,0.00,,---,0.04,VWS V14.01,2013-01-07 01:11:00,
2013-01-06 17:12:00,43.7,35.3,29.91,SE,129,8.7,12.3,72,0.00,,---,0.04,VWS V14.01,2013-01-07 01:12:00,
2013-01-06 17:14:00,43.7,35.3,29.91,ESE,122,10.1,10.1,72,0.00,,---,0.04,VWS V14.01,2013-01-07 01:14:00,
2013-01-06 17:18:00,43.7,35.6,29.91,ESE,119,10.1,11.4,73,0.00,,---,0.04,VWS V14.01,2013-01-07 01:18:00,
2013-01-06 17:19:00,43.7,35.6,29.91,SE,125,11.9,11.9,73,0.00,,---,0.04,VWS V14.01,2013-01-07 01:19:00,
2013-01-06 17:21:00,43.7,35.6,29.91,ESE,122,10.1,11.4,73,0.00,,---,0.04,VWS V14.01,2013-01-07 01:21:00,
2013-01-06 17:22:00,43.7,35.6,29.91,SE,124,9.6,14.1,73,0.00,,---,0.04,VWS V14.01,2013-01-07 01:22:00,
2013-01-06 17:25:00,43.7,35.6,29.91,ESE,113,10.1,11.0,73,0.00,,---,0.04,VWS V14.01,2013-01-07 01:25:00,
2013-01-06 17:28:00,43.7,35.6,29.91,ESE,113,11.0,11.0,73,0.00,,---,0.04,VWS V14.01,2013-01-07 01:28:00,
2013-01-06 17:30:00,43.7,35.6,29.91,ESE,112,13.2,13.2,73,0.00,,---,0.04,VWS V14.01,2013-01-07 01:30:00,
2013-01-06 17:32:00,43.7,35.6,29.91,ESE,122,10.1,11.0,73,0.00,,---,0.04,VWS V14.01,2013-01-07 01:32:00,
2013-01-06 17:35:00,43.7,36.0,29.91,ESE,119,10.1,10.1,74,0.00,,---,0.04,VWS V14.01,2013-01-07 01:35:00,
2013-01-06 17:37:00,43.7,36.0,29.91,ESE,116,13.2,13.2,74,0.00,,---,0.04,VWS V14.01,2013-01-07 01:37:00,
2013-01-06 17:38:00,43.7,36.0,29.91,ESE,116,13.2,13.2,74,0.00,,---,0.04,VWS V14.01,2013-01-07 01:38:00,
2013-01-06 17:40:00,43.7,36.0,29.91,SE,126,11.9,12.8,74,0.00,,---,0.04,VWS V14.01,2013-01-07 01:40:00,
2013-01-06 17:41:00,43.7,36.0,29.91,ESE,112,13.2,13.2,74,0.00,,---,0.04,VWS V14.01,2013-01-07 01:41:00,
2013-01-06 17:44:00,43.7,36.0,29.91,East,100,8.7,13.2,74,0.00,,---,0.04,VWS V14.01,2013-01-07 01:44:00,
2013-01-06 17:45:00,43.7,36.0,29.91,ESE,112,10.5,10.5,74,0.00,,---,0.04,VWS V14.01,2013-01-07 01:45:00,
2013-01-06 17:46:00,43.7,36.0,29.91,East,95,15.4,15.4,74,0.00,,---,0.04,VWS V14.01,2013-01-07 01:46:00,
2013-01-06 17:50:00,43.7,36.0,29.91,ESE,108,13.2,13.2,74,0.00,,---,0.04,VWS V14.01,2013-01-07 01:50:00,
2013-01-06 17:51:00,43.7,36.0,29.91,ESE,110,12.8,13.2,74,0.00,,---,0.04,VWS V14.01,2013-01-07 01:51:00,
2013-01-06 17:54:00,43.7,36.0,29.91,ESE,103,12.8,12.8,74,0.00,,---,0.04,VWS V14.01,2013-01-07 01:54:00,
2013-01-06 17:55:00,43.7,36.0,29.91,ESE,103,12.8,12.8,74,0.00,,---,0.04,VWS V14.01,2013-01-07 01:55:00,
2013-01-06 17:58:00,43.7,36.0,29.91,ESE,109,13.2,13.2,74,0.00,,---,0.04,VWS V14.01,2013-01-07 01:58:00,
2013-01-06 17:59:00,43.7,36.0,29.91,ESE,103,12.8,13.2,74,0.00,,---,0.04,VWS V14.01,2013-01-07 01:59:00,
2013-01-06 18:01:00,43.7,36.0,29.91,ESE,103,12.8,12.8,74,0.00,,---,0.04,VWS V14.01,2013-01-07 02:01:00,
2013-01-06 18:03:00,43.7,36.0,29.91,ESE,115,13.2,15.0,74,0.00,,---,0.04,VWS V14.01,2013-01-07 02:03:00,
2013-01-06 18:07:00,43.7,36.0,29.91,ESE,113,13.2,13.2,74,0.00,,---,0.04,VWS V14.01,2013-01-07 02:07:00,
2013-01-06 18:08:00,43.7,36.0,29.91,ESE,113,13.2,13.2,74,0.00,,---,0.04,VWS V14.01,2013-01-07 02:08:00,
2013-01-06 18:09:00,43.7,36.0,29.91,ESE,109,11.9,13.2,74,0.00,,---,0.04,VWS V14.01,2013-01-07 02:09:00,
2013-01-06 18:10:00,43.7,36.0,29.91,ESE,115,13.2,13.2,74,0.00,,---,0.04,VWS V14.01,2013-01-07 02:10:00,
2013-01-06 18:14:00,43.5,36.1,29.91,ESE,108,15.4,15.4,75,0.00,,---,0.04,VWS V14.01,2013-01-07 02:14:00,
2013-01-06 18:17:00,43.5,36.1,29.91,ESE,114,11.0,14.1,75,0.00,,---,0.04,VWS V14.01,2013-01-07 02:17:00,
2013-01-06 18:18:00,43.5,36.1,29.91,ESE,114,11.0,11.0,75,0.00,,---,0.04,VWS V14.01,2013-01-07 02:18:00,
2013-01-06 18:21:00,43.5,36.1,29.91,ESE,113,12.8,13.6,75,0.00,,---,0.04,VWS V14.01,2013-01-07 02:21:00,
2013-01-06 18:23:00,43.5,36.5,29.91,ESE,104,15.4,15.4,76,0.00,,---,0.04,VWS V14.01,2013-01-07 02:23:00,
2013-01-06 18:24:00,43.5,36.5,29.91,ESE,114,12.8,15.4,76,0.00,,---,0.04,VWS V14.01,2013-01-07 02:24:00,
2013-01-06 18:25:00,43.5,36.5,29.91,ESE,114,12.8,12.8,76,0.00,,---,0.04,VWS V14.01,2013-01-07 02:25:00,
2013-01-06 18:29:00,43.5,36.5,29.91,ESE,117,10.1,10.1,76,0.00,,---,0.04,VWS V14.01,2013-01-07 02:29:00,
2013-01-06 18:30:00,43.7,36.6,29.91,ESE,117,10.1,10.1,76,0.00,,---,0.04,VWS V14.01,2013-01-07 02:30:00,
2013-01-06 18:31:00,43.7,36.6,29.91,SE,124,10.5,10.5,76,0.00,,---,0.04,VWS V14.01,2013-01-07 02:31:00,
2013-01-06 18:34:00,43.7,36.6,29.91,ESE,119,10.5,13.2,76,0.00,,---,0.04,VWS V14.01,2013-01-07 02:34:00,
2013-01-06 18:35:00,43.7,36.6,29.91,ESE,119,10.5,10.5,76,0.00,,---,0.04,VWS V14.01,2013-01-07 02:35:00,
2013-01-06 18:40:00,43.5,36.5,29.91,ESE,121,11.0,11.0,76,0.00,,---,0.04,VWS V14.01,2013-01-07 02:40:00,
2013-01-06 18:42:00,43.7,37.0,29.91,ESE,116,13.2,15.0,77,0.00,,---,0.04,VWS V14.01,2013-01-07 02:42:00,
2013-01-06 18:43:00,43.7,37.0,29.91,ESE,114,14.5,14.5,77,0.00,,---,0.04,VWS V14.01,2013-01-07 02:43:00,
2013-01-06 18:45:00,43.7,37.0,29.91,SSE,163,8.7,14.5,77,0.00,,---,0.04,VWS V14.01,2013-01-07 02:45:00,
2013-01-06 18:47:00,43.5,36.8,29.91,ESE,119,10.1,14.1,77,0.00,,---,0.04,VWS V14.01,2013-01-07 02:47:00,
2013-01-06 18:51:00,43.7,37.0,29.91,ESE,117,12.3,13.2,77,0.00,,---,0.04,VWS V14.01,2013-01-07 02:51:00,
2013-01-06 18:55:00,43.5,36.8,29.91,SE,124,12.3,13.2,77,0.00,,---,0.04,VWS V14.01,2013-01-07 02:55:00,
2013-01-06 18:56:00,43.5,36.8,29.91,ESE,117,14.5,14.5,77,0.00,,---,0.04,VWS V14.01,2013-01-07 02:56:00,
2013-01-06 18:57:00,43.5,36.8,29.91,ESE,117,14.5,14.5,77,0.00,,---,0.04,VWS V14.01,2013-01-07 02:57:00,
2013-01-06 19:00:00,43.5,36.8,29.91,ESE,110,13.2,13.2,77,0.00,,---,0.04,VWS V14.01,2013-01-07 03:00:00,
2013-01-06 19:01:00,43.5,36.8,29.91,SE,130,12.8,13.2,77,0.00,,---,0.04,VWS V14.01,2013-01-07 03:01:00,
2013-01-06 19:02:00,43.5,36.8,29.91,SE,130,12.8,12.8,77,0.00,,---,0.04,VWS V14.01,2013-01-07 03:02:00,
2013-01-06 19:06:00,43.5,36.8,29.91,SE,127,13.2,13.2,77,0.00,,---,0.04,VWS V14.01,2013-01-07 03:06:00,
2013-01-06 19:07:00,43.5,36.8,29.91,ESE,111,12.8,13.2,77,0.00,,---,0.04,VWS V14.01,2013-01-07 03:07:00,
2013-01-06 19:09:00,43.5,36.8,29.91,ESE,115,13.2,13.2,77,0.00,,---,0.04,VWS V14.01,2013-01-07 03:09:00,
2013-01-06 19:11:00,43.5,36.8,29.91,SE,131,12.3,15.0,77,0.00,,---,0.04,VWS V14.01,2013-01-07 03:11:00,
2013-01-06 19:12:00,43.5,36.8,29.91,SE,124,10.5,12.3,77,0.00,,---,0.04,VWS V14.01,2013-01-07 03:12:00,
2013-01-06 19:13:00,43.5,36.5,29.91,SE,124,10.5,10.5,76,0.00,,---,0.04,VWS V14.01,2013-01-07 03:13:00,
2013-01-06 19:17:00,43.5,36.8,29.88,ESE,113,13.2,13.2,77,0.00,,---,0.04,VWS V14.01,2013-01-07 03:17:00,
2013-01-06 19:18:00,43.5,36.8,29.88,SE,127,12.8,13.2,77,0.00,,---,0.04,VWS V14.01,2013-01-07 03:18:00,
2013-01-06 19:19:00,43.5,36.8,29.88,SE,127,12.8,12.8,77,0.00,,---,0.04,VWS V14.01,2013-01-07 03:19:00,
2013-01-06 19:22:00,43.5,36.8,29.88,East,101,15.4,15.4,77,0.04,,---,0.08,VWS V14.01,2013-01-07 03:22:00,
2013-01-06 19:23:00,43.5,36.8,29.88,East,101,15.4,15.4,77,0.04,,---,0.08,VWS V14.01,2013-01-07 03:23:00,
2013-01-06 19:24:00,43.5,36.8,29.88,East,101,15.4,15.4,77,0.04,,---,0.08,VWS V14.01,2013-01-07 03:24:00,
2013-01-06 19:25:00,43.5,36.8,29.88,SE,130,11.9,15.4,77,0.04,,---,0.08,VWS V14.01,2013-01-07 03:25:00,
2013-01-06 19:27:00,43.5,36.8,29.88,SE,130,10.5,10.5,77,0.04,,---,0.08,VWS V14.01,2013-01-07 03:27:00,
2013-01-06 19:30:00,43.5,36.8,29.91,ESE,118,13.2,14.5,77,0.04,,---,0.08,VWS V14.01,2013-01-07 03:30:00,
2013-01-06 19:32:00,43.5,36.8,29.91,SE,130,12.8,12.8,77,0.04,,---,0.08,VWS V14.01,2013-01-07 03:32:00,
2013-01-06 19:33:00,43.5,36.8,29.91,SE,130,12.8,12.8,77,0.04,,---,0.08,VWS V14.01,2013-01-07 03:33:00,
2013-01-06 19:37:00,43.5,36.8,29.91,ESE,123,12.3,12.3,77,0.04,,---,0.08,VWS V14.01,2013-01-07 03:37:00,
2013-01-06 19:38:00,43.5,36.8,29.91,ESE,118,11.9,12.3,77,0.04,,---,0.08,VWS V14.01,2013-01-07 03:38:00,
2013-01-06 19:42:00,43.5,36.8,29.91,ESE,118,13.2,13.2,77,0.04,,---,0.08,VWS V14.01,2013-01-07 03:42:00,
2013-01-06 19:44:00,43.5,36.8,29.91,ESE,116,14.1,14.1,77,0.04,,---,0.08,VWS V14.01,2013-01-07 03:44:00,
2013-01-06 19:45:00,43.5,36.8,29.91,ESE,122,12.8,14.1,77,0.04,,---,0.08,VWS V14.01,2013-01-07 03:45:00,
2013-01-06 19:49:00,43.5,36.8,29.88,SE,132,11.9,11.9,77,0.08,,---,0.12,VWS V14.01,2013-01-07 03:49:00,
2013-01-06 19:51:00,43.3,36.6,29.88,SE,134,12.8,12.8,77,0.08,,---,0.12,VWS V14.01,2013-01-07 03:51:00,
2013-01-06 19:52:00,43.3,36.6,29.88,ESE,120,13.2,13.2,77,0.08,,---,0.12,VWS V14.01,2013-01-07 03:52:00,
2013-01-06 19:55:00,43.3,36.6,29.88,SE,133,12.8,12.8,77,0.08,,---,0.12,VWS V14.01,2013-01-07 03:55:00,
2013-01-06 19:58:00,43.3,36.3,29.88,ESE,105,13.2,13.2,76,0.08,,---,0.12,VWS V14.01,2013-01-07 03:58:00,
2013-01-06 20:00:00,43.3,36.3,29.88,ESE,108,15.4,15.4,76,0.08,,---,0.12,VWS V14.01,2013-01-07 04:00:00,
2013-01-06 20:01:00,43.3,36.3,29.88,ESE,115,13.2,15.4,76,0.08,,---,0.12,VWS V14.01,2013-01-07 04:01:00,
2013-01-06 20:03:00,43.3,36.3,29.88,SE,131,12.8,12.8,76,0.08,,---,0.12,VWS V14.01,2013-01-07 04:03:00,
2013-01-06 20:06:00,43.3,36.3,29.88,ESE,112,13.2,13.2,76,0.08,,---,0.12,VWS V14.01,2013-01-07 04:06:00,
2013-01-06 20:07:00,43.3,36.3,29.88,ESE,108,16.8,16.8,76,0.08,,---,0.12,VWS V14.01,2013-01-07 04:07:00,
2013-01-06 20:08:00,43.3,36.3,29.88,ESE,104,14.5,16.8,76,0.08,,---,0.12,VWS V14.01,2013-01-07 04:08:00,
2013-01-06 20:09:00,43.3,36.3,29.88,ESE,109,13.2,14.5,76,0.08,,---,0.12,VWS V14.01,2013-01-07 04:09:00,
2013-01-06 20:13:00,43.3,36.6,29.88,ESE,112,12.8,15.4,77,0.08,,---,0.12,VWS V14.01,2013-01-07 04:13:00,
2013-01-06 20:15:00,43.3,36.6,29.88,ESE,119,14.5,15.4,77,0.08,,---,0.12,VWS V14.01,2013-01-07 04:15:00,
2013-01-06 20:16:00,43.3,36.3,29.88,SE,132,15.0,15.0,76,0.08,,---,0.12,VWS V14.01,2013-01-07 04:16:00,
2013-01-06 20:19:00,43.3,36.6,29.88,ESE,111,15.4,19.2,77,0.08,,---,0.12,VWS V14.01,2013-01-07 04:19:00,
2013-01-06 20:21:00,43.3,36.6,29.88,ESE,111,15.4,15.4,77,0.08,,---,0.12,VWS V14.01,2013-01-07 04:21:00,
2013-01-06 20:22:00,43.3,36.6,29.88,ESE,122,16.3,16.3,77,0.08,,---,0.12,VWS V14.01,2013-01-07 04:22:00,
2013-01-06 20:26:00,43.3,36.6,29.88,ESE,108,15.0,15.0,77,0.04,,---,0.12,VWS V14.01,2013-01-07 04:26:00,
2013-01-06 20:27:00,43.3,36.6,29.88,ESE,117,16.8,16.8,77,0.04,,---,0.12,VWS V14.01,2013-01-07 04:27:00,
2013-01-06 20:29:00,43.3,36.6,29.88,SE,136,17.4,17.4,77,0.04,,---,0.12,VWS V14.01,2013-01-07 04:29:00,
2013-01-06 20:31:00,43.3,36.6,29.88,ESE,120,17.4,17.4,77,0.04,,---,0.12,VWS V14.01,2013-01-07 04:31:00,
2013-01-06 20:35:00,43.3,36.6,29.88,ESE,120,17.4,17.4,77,0.04,,---,0.12,VWS V14.01,2013-01-07 04:35:00,
2013-01-06 20:36:00,43.3,36.6,29.88,ESE,120,17.4,17.4,77,0.04,,---,0.12,VWS V14.01,2013-01-07 04:36:00,
2013-01-06 20:37:00,43.3,36.6,29.88,ESE,106,13.2,17.4,77,0.04,,---,0.12,VWS V14.01,2013-01-07 04:37:00,
2013-01-06 20:38:00,43.3,36.6,29.88,ESE,123,15.4,17.4,77,0.04,,---,0.12,VWS V14.01,2013-01-07 04:38:00,
2013-01-06 20:41:00,43.3,36.6,29.88,ESE,116,12.3,17.9,77,0.04,,---,0.12,VWS V14.01,2013-01-07 04:41:00,
2013-01-06 20:43:00,43.3,36.3,29.88,SE,131,15.4,17.0,76,0.04,,---,0.12,VWS V14.01,2013-01-07 04:43:00,
2013-01-06 20:47:00,43.3,36.3,29.88,ESE,119,17.9,17.9,76,0.04,,---,0.12,VWS V14.01,2013-01-07 04:47:00,
2013-01-06 20:50:00,43.3,36.3,29.88,SE,125,17.0,17.0,76,0.00,,---,0.12,VWS V14.01,2013-01-07 04:50:00,
2013-01-06 20:51:00,43.2,36.1,29.88,ESE,113,17.4,17.4,76,0.00,,---,0.12,VWS V14.01,2013-01-07 04:51:00,
2013-01-06 20:52:00,43.2,36.1,29.88,ESE,120,16.3,17.4,76,0.00,,---,0.12,VWS V14.01,2013-01-07 04:52:00,
2013-01-06 20:54:00,43.2,36.1,29.88,SE,130,16.8,16.8,76,0.00,,---,0.12,VWS V14.01,2013-01-07 04:54:00,
2013-01-06 20:55:00,43.2,36.1,29.88,ESE,121,16.3,17.4,76,0.00,,---,0.12,VWS V14.01,2013-01-07 04:55:00,
2013-01-06 20:57:00,43.2,36.1,29.88,ESE,104,19.7,19.7,76,0.00,,---,0.12,VWS V14.01,2013-01-07 04:57:00,
2013-01-06 20:58:00,43.2,36.1,29.88,ESE,122,17.0,19.7,76,0.00,,---,0.12,VWS V14.01,2013-01-07 04:58:00,
2013-01-06 21:01:00,43.2,35.8,29.88,ESE,113,18.8,18.8,75,0.00,,---,0.12,VWS V14.01,2013-01-07 05:01:00,
2013-01-06 21:02:00,43.2,35.8,29.85,ESE,113,18.8,18.8,75,0.00,,---,0.12,VWS V14.01,2013-01-07 05:02:00,
2013-01-06 21:03:00,43.2,35.8,29.85,SE,126,15.4,18.8,75,0.00,,---,0.12,VWS V14.01,2013-01-07 05:03:00,
2013-01-06 21:06:00,43.0,35.6,29.85,SE,138,19.7,19.7,75,0.04,,---,0.16,VWS V14.01,2013-01-07 05:06:00,
2013-01-06 21:07:00,43.0,35.6,29.85,SE,131,15.4,19.7,75,0.04,,---,0.16,VWS V14.01,2013-01-07 05:07:00,
2013-01-06 21:10:00,43.0,35.6,29.85,SE,128,16.3,16.3,75,0.04,,---,0.16,VWS V14.01,2013-01-07 05:10:00,
2013-01-06 21:12:00,43.0,35.6,29.85,ESE,112,16.3,17.4,75,0.04,,---,0.16,VWS V14.01,2013-01-07 05:12:00,
2013-01-06 21:14:00,43.0,35.6,29.85,ESE,114,14.1,17.4,75,0.04,,---,0.16,VWS V14.01,2013-01-07 05:14:00,
2013-01-06 21:16:00,43.0,35.6,29.85,SE,130,14.5,14.5,75,0.04,,---,0.16,VWS V14.01,2013-01-07 05:16:00,
2013-01-06 21:17:00,43.0,35.6,29.85,ESE,123,17.4,17.4,75,0.04,,---,0.16,VWS V14.01,2013-01-07 05:17:00,
2013-01-06 21:21:00,43.0,35.6,29.85,SE,131,15.4,15.4,75,0.04,,---,0.16,VWS V14.01,2013-01-07 05:21:00,
2013-01-06 21:23:00,43.0,35.6,29.85,ESE,109,17.4,17.4,75,0.04,,---,0.16,VWS V14.01,2013-01-07 05:23:00,
2013-01-06 21:25:00,43.0,35.6,29.85,ESE,110,17.4,18.8,75,0.04,,---,0.16,VWS V14.01,2013-01-07 05:25:00,
2013-01-06 21:27:00,43.0,35.6,29.85,ESE,123,17.4,18.8,75,0.04,,---,0.16,VWS V14.01,2013-01-07 05:27:00,
2013-01-06 21:30:00,43.0,35.6,29.85,ESE,115,16.3,16.3,75,0.04,,---,0.16,VWS V14.01,2013-01-07 05:30:00,
2013-01-06 21:32:00,43.0,35.6,29.85,SE,126,19.2,19.2,75,0.04,,---,0.16,VWS V14.01,2013-01-07 05:32:00,
2013-01-06 21:36:00,42.8,35.4,29.85,ESE,106,18.3,18.3,75,0.04,,---,0.16,VWS V14.01,2013-01-07 05:36:00,
2013-01-06 21:38:00,42.8,35.4,29.85,ESE,102,18.8,18.8,75,0.04,,---,0.16,VWS V14.01,2013-01-07 05:38:00,
2013-01-06 21:39:00,42.8,35.4,29.85,ESE,115,20.6,21.5,75,0.04,,---,0.16,VWS V14.01,2013-01-07 05:39:00,
2013-01-06 21:44:00,42.8,35.4,29.85,SE,142,16.3,16.3,75,0.04,,---,0.16,VWS V14.01,2013-01-07 05:44:00,
2013-01-06 21:45:00,42.8,35.4,29.85,SE,142,16.3,16.3,75,0.04,,---,0.16,VWS V14.01,2013-01-07 05:45:00,
2013-01-06 21:46:00,42.8,35.4,29.85,ESE,120,17.4,17.9,75,0.04,,---,0.16,VWS V14.01,2013-01-07 05:46:00,
2013-01-06 21:50:00,42.8,35.4,29.85,ESE,119,17.0,17.0,75,0.04,,---,0.16,VWS V14.01,2013-01-07 05:50:00,
2013-01-06 21:51:00,42.8,35.4,29.85,ESE,112,21.9,21.9,75,0.04,,---,0.16,VWS V14.01,2013-01-07 05:51:00,
2013-01-06 21:52:00,42.8,35.4,29.85,ESE,112,21.9,21.9,75,0.04,,---,0.16,VWS V14.01,2013-01-07 05:52:00,
2013-01-06 21:53:00,42.8,35.4,29.85,ESE,120,15.4,21.9,75,0.04,,---,0.16,VWS V14.01,2013-01-07 05:53:00,
2013-01-06 21:55:00,42.8,35.4,29.85,SE,127,15.4,15.4,75,0.04,,---,0.16,VWS V14.01,2013-01-07 05:55:00,
2013-01-06 21:57:00,42.8,35.4,29.85,ESE,110,17.9,18.8,75,0.04,,---,0.16,VWS V14.01,2013-01-07 05:57:00,
2013-01-06 21:59:00,42.8,35.4,29.85,ESE,109,19.7,19.7,75,0.04,,---,0.16,VWS V14.01,2013-01-07 05:59:00,
2013-01-06 22:00:00,42.8,35.4,29.85,SE,125,16.3,19.7,75,0.04,,---,0.16,VWS V14.01,2013-01-07 06:00:00,
2013-01-06 22:05:00,42.8,35.4,29.85,SE,124,17.4,17.4,75,0.04,,---,0.16,VWS V14.01,2013-01-07 06:05:00,
2013-01-06 22:06:00,42.8,35.4,29.85,ESE,115,17.4,17.4,75,0.00,,---,0.16,VWS V14.01,2013-01-07 06:06:00,
2013-01-06 22:08:00,42.8,35.4,29.85,ESE,120,15.4,18.8,75,0.00,,---,0.16,VWS V14.01,2013-01-07 06:08:00,
2013-01-06 22:09:00,42.8,35.4,29.85,ESE,120,15.4,15.4,75,0.00,,---,0.16,VWS V14.01,2013-01-07 06:09:00,
2013-01-06 22:12:00,42.8,35.1,29.85,SE,128,19.7,19.7,74,0.00,,---,0.16,VWS V14.01,2013-01-07 06:12:00,
2013-01-06 22:14:00,42.8,35.1,29.85,ESE,119,19.7,22.8,74,0.00,,---,0.16,VWS V14.01,2013-01-07 06:14:00,
2013-01-06 22:15:00,42.8,35.1,29.85,ESE,104,19.7,21.5,74,0.00,,---,0.16,VWS V14.01,2013-01-07 06:15:00,
2013-01-06 22:19:00,42.8,35.1,29.85,SE,126,17.4,17.4,74,0.00,,---,0.16,VWS V14.01,2013-01-07 06:19:00,
2013-01-06 22:20:00,42.8,35.1,29.85,SE,127,20.1,20.1,74,0.00,,---,0.16,VWS V14.01,2013-01-07 06:20:00,
2013-01-06 22:21:00,42.8,35.1,29.85,ESE,119,17.9,20.1,74,0.00,,---,0.16,VWS V14.01,2013-01-07 06:21:00,
2013-01-06 22:25:00,42.8,35.1,29.85,ESE,113,23.3,23.3,74,0.00,,---,0.16,VWS V14.01,2013-01-07 06:25:00,
2013-01-06 22:26:00,42.8,35.1,29.85,SE,124,20.1,23.3,74,0.00,,---,0.16,VWS V14.01,2013-01-07 06:26:00,
2013-01-06 22:28:00,42.8,35.1,29.85,ESE,121,17.9,20.1,74,0.00,,---,0.16,VWS V14.01,2013-01-07 06:28:00,
2013-01-06 22:29:00,42.8,34.8,29.85,SE,138,15.9,20.6,73,0.00,,---,0.16,VWS V14.01,2013-01-07 06:29:00,
2013-01-06 22:31:00,42.8,34.8,29.83,ESE,120,19.2,22.4,73,0.00,,---,0.16,VWS V14.01,2013-01-07 06:31:00,
2013-01-06 22:33:00,42.8,34.8,29.83,ESE,112,15.4,17.9,73,0.00,,---,0.16,VWS V14.01,2013-01-07 06:33:00,
2013-01-06 22:36:00,42.8,34.4,29.83,ESE,113,22.8,22.8,72,0.00,,---,0.16,VWS V14.01,2013-01-07 06:36:00,
2013-01-06 22:38:00,42.8,34.4,29.83,ESE,123,18.8,20.6,72,0.00,,---,0.16,VWS V14.01,2013-01-07 06:38:00,
2013-01-06 22:39:00,42.8,34.4,29.83,ESE,123,18.8,18.8,72,0.00,,---,0.16,VWS V14.01,2013-01-07 06:39:00,
2013-01-06 22:44:00,42.8,34.4,29.83,ESE,112,18.3,20.1,72,0.00,,---,0.16,VWS V14.01,2013-01-07 06:44:00,
2013-01-06 22:45:00,42.8,34.4,29.83,ESE,108,15.4,18.3,72,0.00,,---,0.16,VWS V14.01,2013-01-07 06:45:00,
2013-01-06 22:47:00,42.4,33.7,29.83,ESE,115,17.9,19.7,71,0.00,,---,0.16,VWS V14.01,2013-01-07 06:47:00,
2013-01-06 22:48:00,42.4,33.7,29.83,East,91,19.7,19.7,71,0.00,,---,0.16,VWS V14.01,2013-01-07 06:48:00,
2013-01-06 22:50:00,42.3,33.5,29.83,ESE,119,18.3,24.2,71,0.00,,---,0.16,VWS V14.01,2013-01-07 06:50:00,
2013-01-06 22:52:00,42.3,33.2,29.83,ESE,117,20.1,20.1,70,0.00,,---,0.16,VWS V14.01,2013-01-07 06:52:00,
2013-01-06 22:55:00,42.1,33.0,29.83,ESE,120,18.3,22.8,70,0.00,,---,0.16,VWS V14.01,2013-01-07 06:55:00,
2013-01-06 22:58:00,42.1,33.0,29.83,SE,126,20.6,20.6,70,0.04,,---,0.20,VWS V14.01,2013-01-07 06:58:00,
2013-01-06 22:59:00,42.1,33.0,29.83,ESE,114,20.1,20.6,70,0.04,,---,0.20,VWS V14.01,2013-01-07 06:59:00,
2013-01-06 23:00:00,42.1,33.0,29.83,ESE,114,20.1,20.1,70,0.04,,---,0.20,VWS V14.01,2013-01-07 07:00:00,
2013-01-06 23:05:00,41.9,32.8,29.83,ESE,121,22.4,22.4,70,0.04,,---,0.20,VWS V14.01,2013-01-07 07:05:00,
2013-01-06 23:06:00,41.9,32.8,29.83,ESE,123,18.8,22.4,70,0.04,,---,0.20,VWS V14.01,2013-01-07 07:06:00,
2013-01-06 23:08:00,41.9,32.8,29.83,SE,134,18.3,18.3,70,0.04,,---,0.20,VWS V14.01,2013-01-07 07:08:00,
2013-01-06 23:09:00,41.9,32.5,29.83,SE,130,17.0,19.2,69,0.04,,---,0.20,VWS V14.01,2013-01-07 07:09:00,
2013-01-06 23:12:00,41.9,32.5,29.83,ESE,121,17.0,17.9,69,0.04,,---,0.20,VWS V14.01,2013-01-07 07:12:00,
2013-01-06 23:14:00,42.1,32.7,29.83,ESE,122,17.9,18.3,69,0.04,,---,0.20,VWS V14.01,2013-01-07 07:14:00,
2013-01-06 23:16:00,42.1,32.7,29.83,SE,124,17.4,22.4,69,0.04,,---,0.20,VWS V14.01,2013-01-07 07:16:00,
2013-01-06 23:17:00,42.1,32.3,29.83,SE,130,17.4,18.8,68,0.04,,---,0.20,VWS V14.01,2013-01-07 07:17:00,
2013-01-06 23:21:00,42.1,32.3,29.83,SE,128,17.9,23.3,68,0.04,,---,0.20,VWS V14.01,2013-01-07 07:21:00,
2013-01-06 23:22:00,42.1,32.3,29.83,SE,126,17.4,18.3,68,0.04,,---,0.20,VWS V14.01,2013-01-07 07:22:00,
2013-01-06 23:23:00,42.1,32.3,29.83,ESE,115,16.3,17.4,68,0.04,,---,0.20,VWS V14.01,2013-01-07 07:23:00,
2013-01-06 23:26:00,42.1,32.3,29.83,ESE,113,15.9,20.1,68,0.04,,---,0.20,VWS V14.01,2013-01-07 07:26:00,
2013-01-06 23:28:00,42.1,32.3,29.83,SE,136,17.4,17.4,68,0.04,,---,0.20,VWS V14.01,2013-01-07 07:28:00,
2013-01-06 23:30:00,42.1,32.3,29.83,ESE,120,18.3,18.8,68,0.04,,---,0.20,VWS V14.01,2013-01-07 07:30:00,
2013-01-06 23:32:00,42.1,32.3,29.83,SE,127,16.8,17.0,68,0.04,,---,0.20,VWS V14.01,2013-01-07 07:32:00,
2013-01-06 23:33:00,42.1,32.3,29.83,ESE,115,17.4,17.4,68,0.04,,---,0.20,VWS V14.01,2013-01-07 07:33:00,
2013-01-06 23:35:00,42.1,32.3,29.83,SE,127,17.9,20.6,68,0.04,,---,0.20,VWS V14.01,2013-01-07 07:35:00,
2013-01-06 23:37:00,42.1,32.3,29.83,SE,127,17.9,17.9,68,0.04,,---,0.20,VWS V14.01,2013-01-07 07:37:00,
2013-01-06 23:41:00,42.3,32.5,29.83,SE,124,19.7,20.1,68,0.04,,---,0.20,VWS V14.01,2013-01-07 07:41:00,
2013-01-06 23:42:00,42.3,32.5,29.83,SE,126,21.0,25.7,68,0.04,,---,0.20,VWS V14.01,2013-01-07 07:42:00,
2013-01-06 23:43:00,42.3,32.5,29.83,ESE,120,19.7,21.0,68,0.04,,---,0.20,VWS V14.01,2013-01-07 07:43:00,
2013-01-06 23:46:00,42.3,32.5,29.83,ESE,116,18.8,22.4,68,0.04,,---,0.20,VWS V14.01,2013-01-07 07:46:00,
2013-01-06 23:48:00,42.3,32.5,29.83,ESE,119,20.1,20.6,68,0.04,,---,0.20,VWS V14.01,2013-01-07 07:48:00,
2013-01-06 23:49:00,42.3,32.5,29.83,ESE,119,20.1,20.1,68,0.04,,---,0.20,VWS V14.01,2013-01-07 07:49:00,
2013-01-06 23:51:00,42.3,32.5,29.83,ESE,119,20.1,20.1,68,0.04,,---,0.20,VWS V14.01,2013-01-07 07:51:00,
2013-01-06 23:53:00,42.3,32.5,29.83,SE,141,17.4,18.3,68,0.04,,---,0.20,VWS V14.01,2013-01-07 07:53:00,
2013-01-06 23:54:00,42.3,32.5,29.83,SE,141,17.4,17.4,68,0.04,,---,0.20,VWS V14.01,2013-01-07 07:54:00,
2013-01-06 23:55:00,42.3,32.5,29.83,ESE,112,19.2,19.2,68,0.04,,---,0.20,VWS V14.01,2013-01-07 07:55:00,